Peotone Weather
Station Historical Data
Daily Summary for April 9, 2012 Units:  English    Metric   Both
« Previous Day
Next Day »
Daily Weekly Monthly Yearly Custom
  High: Low: Average:
Temperature: 63.6 °F 41.2 °F 52.7 °F
Dew Point: 39.4 °F 20.9 °F 29.9 °F
Humidity: 86% 22% 46%
Wind Speed: 33.0mph 0.0mph 9.4mph
Wind Gust: 33.0mph - -
Wind- - West
Pressure: 30.09 in 29.93 in -
Precipitation: 0.00 in    
Historical Graphs
 
 
Tabular Data for April 9, 2012
Time Temperature Dew Point Pressure Wind Wind Speed Wind Gust Humidity Rainfall Rate (Hourly) solar Conditions
00:03 48.4 °F 38.0 °F 30.09 in Calm   4.0 mph 67% 0.00 in 0.00 W/m2
00:04 48.3 °F 37.9 °F 30.09 in Calm   4.0 mph 67% 0.00 in 0.00 W/m2
00:09 48.3 °F 37.9 °F 30.08 in ENE 3.0 mph 4.0 mph 67% 0.00 in 0.00 W/m2
00:14 48.2 °F 37.8 °F 30.09 in Calm   4.0 mph 67% 0.00 in 0.00 W/m2
00:15 48.1 °F 37.7 °F 30.09 in Calm   4.0 mph 67% 0.00 in 0.00 W/m2
00:19 48.1 °F 37.7 °F 30.09 in Calm   4.0 mph 67% 0.00 in 0.00 W/m2
00:20 48.1 °F 37.7 °F 30.09 in Calm     67% 0.00 in 0.00 W/m2
00:24 48.1 °F 37.7 °F 30.08 in ENE 2.0 mph 4.0 mph 67% 0.00 in 0.00 W/m2
00:26 48.1 °F 37.7 °F 30.08 in Calm   4.0 mph 67% 0.00 in 0.00 W/m2
00:29 48.1 °F 37.7 °F 30.08 in ENE 2.0 mph 4.0 mph 67% 0.00 in 0.00 W/m2
00:30 48.1 °F 37.7 °F 30.08 in ENE 1.0 mph 1.0 mph 67% 0.00 in 0.00 W/m2
00:32 48.1 °F 37.7 °F 30.08 in Calm   4.0 mph 67% 0.00 in 0.00 W/m2
00:34 48.1 °F 37.7 °F 30.08 in ENE 1.0 mph 4.0 mph 67% 0.00 in 0.00 W/m2
00:35 48.1 °F 37.7 °F 30.08 in ENE 1.0 mph 4.0 mph 67% 0.00 in 0.00 W/m2
00:37 48.1 °F 37.7 °F 30.08 in Calm   5.0 mph 67% 0.00 in 0.00 W/m2
00:39 48.1 °F 37.7 °F 30.08 in Calm   5.0 mph 67% 0.00 in 0.00 W/m2
00:40 48.1 °F 37.7 °F 30.08 in ENE 2.0 mph 5.0 mph 67% 0.00 in 0.00 W/m2
00:43 48.1 °F 37.7 °F 30.08 in ENE 1.0 mph 3.0 mph 67% 0.00 in 0.00 W/m2
00:44 48.1 °F 37.7 °F 30.08 in ENE 1.0 mph 3.0 mph 67% 0.00 in 0.00 W/m2
00:45 48.1 °F 37.7 °F 30.08 in ENE 3.0 mph 3.0 mph 67% 0.00 in 0.00 W/m2
00:46 48.0 °F 37.6 °F 30.08 in Calm   4.0 mph 67% 0.00 in 0.00 W/m2
00:48 48.0 °F 37.6 °F 30.07 in ENE 3.0 mph 4.0 mph 67% 0.00 in 0.00 W/m2
00:50 48.0 °F 38.0 °F 30.07 in East 3.0 mph 5.0 mph 68% 0.00 in 0.00 W/m2
00:52 47.9 °F 37.9 °F 30.08 in East 1.0 mph 4.0 mph 68% 0.00 in 0.00 W/m2
00:53 47.9 °F 37.9 °F 30.07 in Calm   5.0 mph 68% 0.00 in 0.00 W/m2
00:55 47.8 °F 37.8 °F 30.07 in East 3.0 mph 5.0 mph 68% 0.00 in 0.00 W/m2
00:57 47.8 °F 37.8 °F 30.07 in East 3.0 mph 5.0 mph 68% 0.00 in 0.00 W/m2
00:58 47.8 °F 37.8 °F 30.07 in East 2.0 mph 5.0 mph 68% 0.00 in 0.00 W/m2
01:01 47.8 °F 37.8 °F 30.07 in Calm   4.0 mph 68% 0.00 in 0.00 W/m2
01:02 47.8 °F 37.8 °F 30.07 in East 3.0 mph 4.0 mph 68% 0.00 in 0.00 W/m2
01:03 47.7 °F 37.7 °F 30.07 in East 4.0 mph 4.0 mph 68% 0.00 in 0.00 W/m2
01:06 47.7 °F 37.7 °F 30.07 in ESE 6.0 mph 7.0 mph 68% 0.00 in 0.00 W/m2
01:07 47.7 °F 37.7 °F 30.06 in ESE 5.0 mph 7.0 mph 68% 0.00 in 0.00 W/m2
01:09 47.6 °F 37.6 °F 30.06 in East 5.0 mph 13.0 mph 68% 0.00 in 0.00 W/m2
01:11 47.6 °F 38.0 °F 30.07 in East 4.0 mph 7.0 mph 69% 0.00 in 0.00 W/m2
01:12 47.6 °F 38.0 °F 30.07 in East 5.0 mph 7.0 mph 69% 0.00 in 0.00 W/m2
01:13 47.6 °F 38.0 °F 30.07 in ESE 10.0 mph 10.0 mph 69% 0.00 in 0.00 W/m2
01:14 47.6 °F 37.6 °F 30.07 in ESE 7.0 mph 10.0 mph 68% 0.00 in 0.00 W/m2
01:16 47.6 °F 37.6 °F 30.07 in SE 3.0 mph 10.0 mph 68% 0.00 in 0.00 W/m2
01:17 47.7 °F 37.7 °F 30.07 in Calm   10.0 mph 68% 0.00 in 0.00 W/m2
01:18 47.7 °F 37.7 °F 30.07 in SE 1.0 mph 10.0 mph 68% 0.00 in 0.00 W/m2
01:19 47.7 °F 37.7 °F 30.07 in Calm   10.0 mph 68% 0.00 in 0.00 W/m2
01:22 47.7 °F 37.7 °F 30.07 in Calm   2.0 mph 68% 0.00 in 0.00 W/m2
01:23 47.7 °F 37.7 °F 30.07 in Calm   2.0 mph 68% 0.00 in 0.00 W/m2
01:24 47.7 °F 37.7 °F 30.07 in Calm   3.0 mph 68% 0.00 in 0.00 W/m2
01:27 47.7 °F 37.7 °F 30.07 in Calm   3.0 mph 68% 0.00 in 0.00 W/m2
01:28 47.7 °F 37.7 °F 30.07 in Calm   3.0 mph 68% 0.00 in 0.00 W/m2
01:29 47.7 °F 37.7 °F 30.07 in Calm   3.0 mph 68% 0.00 in 0.00 W/m2
01:33 47.7 °F 37.7 °F 30.06 in Calm   1.0 mph 68% 0.00 in 0.00 W/m2
01:34 47.7 °F 37.7 °F 30.06 in Calm   1.0 mph 68% 0.00 in 0.00 W/m2
01:38 47.6 °F 37.6 °F 30.06 in SE 2.0 mph 2.0 mph 68% 0.00 in 0.00 W/m2
01:39 47.6 °F 37.6 °F 30.06 in Calm   2.0 mph 68% 0.00 in 0.00 W/m2
01:43 47.6 °F 38.0 °F 30.06 in Calm   5.0 mph 69% 0.00 in 0.00 W/m2
01:44 47.6 °F 37.6 °F 30.07 in Calm   5.0 mph 68% 0.00 in 0.00 W/m2
01:45 47.6 °F 37.6 °F 30.07 in SE 1.0 mph 5.0 mph 68% 0.00 in 0.00 W/m2
01:48 47.5 °F 37.5 °F 30.06 in Calm   5.0 mph 68% 0.00 in 0.00 W/m2
01:49 47.5 °F 37.5 °F 30.06 in Calm   5.0 mph 68% 0.00 in 0.00 W/m2
01:50 47.5 °F 37.5 °F 30.06 in Calm   5.0 mph 68% 0.00 in 0.00 W/m2
01:54 47.5 °F 37.5 °F 30.06 in Calm   4.0 mph 68% 0.00 in 0.00 W/m2
01:55 47.4 °F 37.4 °F 30.06 in Calm   4.0 mph 68% 0.00 in 0.00 W/m2
01:59 47.4 °F 37.8 °F 30.06 in Calm   4.0 mph 69% 0.00 in 0.00 W/m2
02:00 47.4 °F 37.8 °F 30.06 in Calm   4.0 mph 69% 0.00 in 0.00 W/m2
02:04 47.4 °F 37.8 °F 30.06 in SE 1.0 mph 4.0 mph 69% 0.00 in 0.00 W/m2
02:05 47.3 °F 37.7 °F 30.05 in Calm   4.0 mph 69% 0.00 in 0.00 W/m2
02:06 47.3 °F 37.7 °F 30.05 in SE 3.0 mph 4.0 mph 69% 0.00 in 0.00 W/m2
02:10 47.3 °F 37.7 °F 30.06 in Calm   5.0 mph 69% 0.00 in 0.00 W/m2
02:11 47.3 °F 38.0 °F 30.06 in Calm   1.0 mph 70% 0.00 in 0.00 W/m2
02:15 47.2 °F 37.9 °F 30.05 in SE 2.0 mph 4.0 mph 70% 0.00 in 0.00 W/m2
02:16 47.2 °F 37.9 °F 30.05 in Calm   4.0 mph 70% 0.00 in 0.00 W/m2
02:20 47.2 °F 37.9 °F 30.05 in SE 3.0 mph 4.0 mph 70% 0.00 in 0.00 W/m2
02:21 47.2 °F 37.9 °F 30.05 in SE 2.0 mph 4.0 mph 70% 0.00 in 0.00 W/m2
02:25 47.2 °F 37.9 °F 30.04 in SE 4.0 mph 5.0 mph 70% 0.00 in 0.00 W/m2
02:26 47.2 °F 37.9 °F 30.04 in SE 1.0 mph 5.0 mph 70% 0.00 in 0.00 W/m2
02:27 47.2 °F 37.9 °F 30.04 in Calm   5.0 mph 70% 0.00 in 0.00 W/m2
02:31 47.1 °F 37.8 °F 30.04 in Calm   3.0 mph 70% 0.00 in 0.00 W/m2
02:32 47.1 °F 37.8 °F 30.04 in Calm   3.0 mph 70% 0.00 in 0.00 W/m2
02:36 47.1 °F 37.8 °F 30.04 in Calm   3.0 mph 70% 0.00 in 0.00 W/m2
02:37 47.0 °F 37.7 °F 30.04 in SE 4.0 mph 4.0 mph 70% 0.00 in 0.00 W/m2
02:38 47.0 °F 37.7 °F 30.03 in Calm   4.0 mph 70% 0.00 in 0.00 W/m2
02:41 46.9 °F 37.6 °F 30.03 in SE 3.0 mph 4.0 mph 70% 0.00 in 0.00 W/m2
02:42 46.9 °F 37.6 °F 30.03 in SE 2.0 mph 4.0 mph 70% 0.00 in 0.00 W/m2
02:43 46.8 °F 37.5 °F 30.03 in SE 2.0 mph 4.0 mph 70% 0.00 in 0.00 W/m2
02:44 46.8 °F 37.5 °F 30.03 in SE 1.0 mph 4.0 mph 70% 0.00 in 0.00 W/m2
02:46 46.8 °F 37.9 °F 30.03 in Calm   4.0 mph 71% 0.00 in 0.00 W/m2
02:48 46.7 °F 37.5 °F 30.03 in SE 4.0 mph 5.0 mph 70% 0.00 in 0.00 W/m2
02:49 46.7 °F 37.5 °F 30.03 in SE 3.0 mph 5.0 mph 70% 0.00 in 0.00 W/m2
02:50 46.6 °F 37.3 °F 30.03 in Calm   5.0 mph 70% 0.00 in 0.00 W/m2
02:51 46.6 °F 37.3 °F 30.02 in SE 2.0 mph 4.0 mph 70% 0.00 in 0.00 W/m2
02:53 46.5 °F 37.3 °F 30.02 in SE 3.0 mph 5.0 mph 70% 0.00 in 0.00 W/m2
02:55 46.4 °F 37.2 °F 30.02 in Calm   5.0 mph 70% 0.00 in 0.00 W/m2
02:56 46.4 °F 37.2 °F 30.02 in SE 2.0 mph 5.0 mph 70% 0.00 in 0.00 W/m2
02:58 46.3 °F 37.1 °F 30.02 in SE 2.0 mph 5.0 mph 70% 0.00 in 0.00 W/m2
03:00 46.1 °F 37.2 °F 30.02 in SE 2.0 mph 4.0 mph 71% 0.00 in 0.00 W/m2
03:01 46.1 °F 37.2 °F 30.02 in SE 3.0 mph 4.0 mph 71% 0.00 in 0.00 W/m2
03:03 46.0 °F 37.1 °F 30.02 in SE 4.0 mph 7.0 mph 71% 0.00 in 0.00 W/m2
03:06 45.9 °F 37.0 °F 30.02 in SE 3.0 mph 7.0 mph 71% 0.00 in 0.00 W/m2
03:07 45.9 °F 37.0 °F 30.02 in SE 4.0 mph 7.0 mph 71% 0.00 in 0.00 W/m2
03:08 45.8 °F 37.0 °F 30.02 in SE 2.0 mph 7.0 mph 71% 0.00 in 0.00 W/m2
03:09 45.8 °F 37.0 °F 30.01 in SE 4.0 mph 7.0 mph 71% 0.00 in 0.00 W/m2
03:12 45.7 °F 36.8 °F 30.02 in Calm   5.0 mph 71% 0.00 in 0.00 W/m2
03:15 45.6 °F 36.8 °F 30.01 in SE 1.0 mph 6.0 mph 71% 0.00 in 0.00 W/m2
03:17 45.5 °F 36.7 °F 30.01 in SE 4.0 mph 6.0 mph 71% 0.00 in 0.00 W/m2
03:20 45.3 °F 36.8 °F 30.01 in SE 1.0 mph 6.0 mph 72% 0.00 in 0.00 W/m2
03:22 45.2 °F 36.7 °F 30.01 in SE 1.0 mph 4.0 mph 72% 0.00 in 0.00 W/m2
03:23 45.1 °F 36.6 °F 30.01 in Calm   4.0 mph 72% 0.00 in 0.00 W/m2
03:26 45.0 °F 36.5 °F 30.01 in SE 2.0 mph 4.0 mph 72% 0.00 in 0.00 W/m2
03:28 44.9 °F 36.8 °F 30.01 in SE 1.0 mph 4.0 mph 73% 0.00 in 0.00 W/m2
03:31 44.9 °F 36.8 °F 30.01 in SE 2.0 mph 2.0 mph 73% 0.00 in 0.00 W/m2
03:33 44.9 °F 36.8 °F 30.00 in Calm   3.0 mph 73% 0.00 in 0.00 W/m2
03:34 44.9 °F 36.8 °F 30.00 in Calm   3.0 mph 73% 0.00 in 0.00 W/m2
03:36 44.9 °F 36.8 °F 30.01 in Calm   3.0 mph 73% 0.00 in 0.00 W/m2
03:38 44.9 °F 36.8 °F 30.00 in SE 1.0 mph 3.0 mph 73% 0.00 in 0.00 W/m2
03:39 44.8 °F 36.7 °F 30.00 in SE 1.0 mph 3.0 mph 73% 0.00 in 0.00 W/m2
03:41 44.9 °F 36.8 °F 30.00 in SE 1.0 mph 2.0 mph 73% 0.00 in 0.00 W/m2
03:43 44.9 °F 36.8 °F 30.00 in Calm   4.0 mph 73% 0.00 in 0.00 W/m2
03:45 44.9 °F 36.8 °F 30.00 in SE 2.0 mph 4.0 mph 73% 0.00 in 0.00 W/m2
03:46 44.9 °F 36.8 °F 30.00 in Calm   4.0 mph 73% 0.00 in 0.00 W/m2
03:48 44.9 °F 36.8 °F 30.00 in SE 2.0 mph 4.0 mph 73% 0.00 in 0.00 W/m2
03:49 44.9 °F 36.8 °F 30.00 in SE 2.0 mph 4.0 mph 73% 0.00 in 0.00 W/m2
03:51 45.0 °F 36.9 °F 30.00 in Calm   3.0 mph 73% 0.00 in 0.00 W/m2
03:53 45.0 °F 36.9 °F 30.00 in SE 2.0 mph 4.0 mph 73% 0.00 in 0.00 W/m2
03:54 44.9 °F 36.8 °F 30.00 in Calm   4.0 mph 73% 0.00 in 0.00 W/m2
03:57 45.0 °F 36.9 °F 30.00 in Calm   4.0 mph 73% 0.00 in 0.00 W/m2
03:58 45.0 °F 36.9 °F 30.00 in Calm   4.0 mph 73% 0.00 in 0.00 W/m2
03:59 45.0 °F 36.9 °F 30.00 in Calm   4.0 mph 73% 0.00 in 0.00 W/m2
04:00 45.0 °F 36.9 °F 30.00 in SE 3.0 mph 4.0 mph 73% 0.00 in 0.00 W/m2
04:02 45.0 °F 36.9 °F 30.00 in SE 3.0 mph 4.0 mph 73% 0.00 in 0.00 W/m2
04:04 45.0 °F 36.9 °F 30.00 in SE 1.0 mph 4.0 mph 73% 0.00 in 0.00 W/m2
04:06 45.0 °F 36.9 °F 30.00 in Calm   4.0 mph 73% 0.00 in 0.00 W/m2
04:08 45.0 °F 36.9 °F 30.00 in Calm   4.0 mph 73% 0.00 in 0.00 W/m2
04:09 45.0 °F 36.9 °F 30.00 in Calm   4.0 mph 73% 0.00 in 0.00 W/m2
04:11 45.0 °F 36.9 °F 30.00 in Calm   1.0 mph 73% 0.00 in 0.00 W/m2
04:13 45.0 °F 36.9 °F 30.00 in Calm   1.0 mph 73% 0.00 in 0.00 W/m2
04:14 45.0 °F 36.9 °F 30.00 in Calm   1.0 mph 73% 0.00 in 0.00 W/m2
04:16 45.0 °F 36.9 °F 30.00 in Calm   1.0 mph 73% 0.00 in 0.00 W/m2
04:19 45.0 °F 36.9 °F 30.00 in Calm   1.0 mph 73% 0.00 in 0.00 W/m2
04:20 45.0 °F 36.9 °F 30.00 in Calm     73% 0.00 in 0.00 W/m2
04:21 45.0 °F 36.9 °F 30.00 in Calm     73% 0.00 in 0.00 W/m2
04:24 44.9 °F 36.8 °F 30.00 in Calm     73% 0.00 in 0.00 W/m2
04:25 44.9 °F 36.8 °F 30.00 in Calm     73% 0.00 in 0.00 W/m2
04:26 44.9 °F 36.8 °F 30.00 in Calm     73% 0.00 in 0.00 W/m2
04:27 44.9 °F 36.8 °F 30.00 in Calm     73% 0.00 in 0.00 W/m2
04:29 44.8 °F 36.7 °F 30.00 in Calm     73% 0.00 in 0.00 W/m2
04:31 44.8 °F 36.7 °F 30.00 in Calm     73% 0.00 in 0.00 W/m2
04:32 44.8 °F 36.7 °F 30.00 in Calm     73% 0.00 in 0.00 W/m2
04:33 44.8 °F 36.7 °F 30.01 in Calm     73% 0.00 in 0.00 W/m2
04:35 44.7 °F 36.6 °F 30.01 in Calm     73% 0.00 in 0.00 W/m2
04:36 44.7 °F 36.6 °F 30.01 in Calm     73% 0.00 in 0.00 W/m2
04:37 44.6 °F 36.5 °F 30.01 in Calm     73% 0.00 in 0.00 W/m2
04:39 44.6 °F 36.5 °F 30.01 in Calm     73% 0.00 in 0.00 W/m2
04:40 44.5 °F 36.4 °F 30.01 in Calm     73% 0.00 in 0.00 W/m2
04:43 44.4 °F 36.3 °F 30.01 in Calm   1.0 mph 73% 0.00 in 0.00 W/m2
04:44 44.3 °F 36.2 °F 30.01 in Calm   1.0 mph 73% 0.00 in 0.00 W/m2
04:45 44.3 °F 36.2 °F 30.01 in Calm   2.0 mph 73% 0.00 in 0.00 W/m2
04:49 44.1 °F 36.0 °F 30.01 in Calm   2.0 mph 73% 0.00 in 0.00 W/m2
04:50 44.1 °F 36.4 °F 30.00 in Calm     74% 0.00 in 0.00 W/m2
04:54 44.0 °F 36.3 °F 30.01 in Calm   4.0 mph 74% 0.00 in 0.00 W/m2
04:55 43.9 °F 36.2 °F 30.01 in SE 1.0 mph 5.0 mph 74% 0.00 in 0.00 W/m2
04:59 43.8 °F 36.1 °F 30.01 in East 7.0 mph 7.0 mph 74% 0.00 in 0.00 W/m2
05:01 43.7 °F 36.3 °F 30.00 in Calm   5.0 mph 75% 0.00 in 0.00 W/m2
05:02 43.7 °F 36.3 °F 30.01 in Calm   5.0 mph 75% 0.00 in 0.00 W/m2
05:04 43.6 °F 36.2 °F 30.00 in ENE 3.0 mph 5.0 mph 75% 0.00 in 0.00 W/m2
05:05 43.6 °F 36.2 °F 30.00 in ENE 4.0 mph 5.0 mph 75% 0.00 in 0.00 W/m2
05:06 43.6 °F 36.2 °F 30.00 in Calm   5.0 mph 75% 0.00 in 0.00 W/m2
05:07 43.6 °F 36.2 °F 30.01 in Calm   5.0 mph 75% 0.00 in 0.00 W/m2
05:09 43.6 °F 36.2 °F 30.01 in ENE 3.0 mph 5.0 mph 75% 0.00 in 0.00 W/m2
05:11 43.7 °F 36.3 °F 30.01 in Calm   3.0 mph 75% 0.00 in 0.00 W/m2
05:12 43.7 °F 36.3 °F 30.01 in ENE 2.0 mph 3.0 mph 75% 0.00 in 0.00 W/m2
05:14 43.7 °F 36.3 °F 30.01 in ENE 3.0 mph 4.0 mph 75% 0.00 in 0.00 W/m2
05:17 43.8 °F 36.4 °F 30.00 in Calm   4.0 mph 75% 0.00 in 0.00 W/m2
05:18 43.8 °F 36.4 °F 30.00 in ENE 3.0 mph 4.0 mph 75% 0.00 in 0.00 W/m2
05:19 43.8 °F 36.4 °F 30.00 in Calm   4.0 mph 75% 0.00 in 0.00 W/m2
05:22 43.8 °F 36.4 °F 30.00 in ENE 1.0 mph 5.0 mph 75% 0.00 in 0.00 W/m2
05:23 43.9 °F 36.5 °F 30.00 in ENE 2.0 mph 5.0 mph 75% 0.00 in 0.00 W/m2
05:25 43.9 °F 36.8 °F 30.00 in Calm   5.0 mph 76% 0.00 in 0.00 W/m2
05:28 43.8 °F 36.7 °F 30.00 in ENE 1.0 mph 5.0 mph 76% 0.00 in 0.00 W/m2
05:33 43.8 °F 36.7 °F 30.00 in ENE 1.0 mph 3.0 mph 76% 0.00 in 0.00 W/m2
05:34 43.7 °F 36.6 °F 30.00 in Calm   3.0 mph 76% 0.00 in 0.00 W/m2
05:36 43.7 °F 36.6 °F 29.99 in Calm   3.0 mph 76% 0.00 in 0.00 W/m2
05:38 43.7 °F 36.6 °F 30.00 in Calm   3.0 mph 76% 0.00 in 0.00 W/m2
05:39 43.7 °F 36.6 °F 30.00 in Calm   3.0 mph 76% 0.00 in 0.00 W/m2
05:42 43.6 °F 36.5 °F 30.00 in Calm     76% 0.00 in 0.00 W/m2
05:43 43.6 °F 36.5 °F 30.00 in Calm     76% 0.00 in 0.00 W/m2
05:44 43.5 °F 36.5 °F 29.99 in Calm     76% 0.00 in 0.00 W/m2
05:45 43.5 °F 36.5 °F 29.99 in Calm   1.0 mph 76% 0.00 in 0.00 W/m2
05:48 43.4 °F 36.7 °F 30.00 in Calm   1.0 mph 77% 0.00 in 0.00 W/m2
05:50 43.4 °F 36.7 °F 30.00 in Calm   1.0 mph 77% 0.00 in 0.00 W/m2
05:53 43.3 °F 36.6 °F 30.00 in Calm   2.0 mph 77% 0.00 in 0.00 W/m2
05:55 43.2 °F 36.5 °F 29.99 in Calm   2.0 mph 77% 0.00 in 0.00 W/m2
05:56 43.1 °F 36.4 °F 30.00 in Calm   2.0 mph 77% 0.00 in 0.00 W/m2
05:58 43.1 °F 36.4 °F 30.00 in Calm   2.0 mph 77% 0.00 in 0.00 W/m2
06:00 43.0 °F 36.3 °F 30.00 in Calm   2.0 mph 77% 0.00 in 0.00 W/m2
06:01 43.0 °F 36.3 °F 30.00 in Calm     77% 0.00 in 0.00 W/m2
06:03 42.9 °F 36.2 °F 30.00 in Calm     77% 0.00 in 0.00 W/m2
06:06 42.9 °F 36.2 °F 30.00 in Calm     77% 0.00 in 0.00 W/m2
06:08 42.8 °F 36.1 °F 30.00 in Calm     77% 0.00 in 0.00 W/m2
06:11 42.7 °F 36.0 °F 30.00 in Calm     77% 0.00 in 0.00 W/m2
06:13 42.6 °F 35.9 °F 30.00 in Calm     77% 0.00 in 0.00 W/m2
06:14 42.6 °F 35.9 °F 30.00 in Calm     77% 0.00 in 0.00 W/m2
06:16 42.5 °F 35.8 °F 30.00 in Calm     77% 0.00 in 0.00 W/m2
06:18 42.4 °F 35.7 °F 30.00 in Calm     77% 0.00 in 0.00 W/m2
06:19 42.3 °F 35.6 °F 30.00 in Calm     77% 0.00 in 0.00 W/m2
06:21 42.2 °F 35.5 °F 30.00 in Calm     77% 0.00 in 5.00 W/m2
06:24 42.0 °F 35.3 °F 30.00 in Calm     77% 0.00 in 5.00 W/m2
06:25 41.9 °F 35.2 °F 30.00 in Calm     77% 0.00 in 7.00 W/m2
06:27 41.9 °F 35.5 °F 30.00 in Calm     78% 0.00 in 7.00 W/m2
06:28 41.9 °F 35.5 °F 30.00 in Calm     78% 0.00 in 7.00 W/m2
06:29 41.8 °F 35.5 °F 30.00 in Calm     78% 0.00 in 9.00 W/m2
06:31 41.7 °F 35.4 °F 30.00 in Calm     78% 0.00 in 11.00 W/m2
06:32 41.7 °F 35.4 °F 30.00 in Calm     78% 0.00 in 11.00 W/m2
06:33 41.7 °F 35.4 °F 30.01 in Calm     78% 0.00 in 12.00 W/m2
06:34 41.6 °F 35.3 °F 30.01 in Calm     78% 0.00 in 12.00 W/m2
06:37 41.5 °F 35.2 °F 30.00 in Calm     78% 0.00 in 14.00 W/m2
06:38 41.5 °F 35.2 °F 30.00 in Calm     78% 0.00 in 14.00 W/m2
06:40 41.4 °F 35.1 °F 30.01 in Calm     78% 0.00 in 16.00 W/m2
06:42 41.3 °F 35.0 °F 30.01 in Calm     78% 0.00 in 18.00 W/m2
06:43 41.3 °F 35.0 °F 30.01 in Calm     78% 0.00 in 19.00 W/m2
06:45 41.2 °F 35.2 °F 30.01 in Calm     79% 0.00 in 19.00 W/m2
06:47 41.2 °F 35.2 °F 30.01 in Calm     79% 0.00 in 21.00 W/m2
06:49 41.2 °F 35.2 °F 30.02 in Calm     79% 0.00 in 23.00 W/m2
06:50 41.2 °F 36.7 °F 30.01 in Calm     84% 0.00 in 25.00 W/m2
06:52 41.2 °F 35.5 °F 30.02 in Calm     80% 0.00 in 25.00 W/m2
06:54 41.2 °F 35.5 °F 30.02 in Calm   1.0 mph 80% 0.00 in 26.00 W/m2
06:55 41.2 °F 35.5 °F 30.02 in Calm   1.0 mph 80% 0.00 in 28.00 W/m2
06:57 41.2 °F 35.5 °F 30.02 in Calm   1.0 mph 80% 0.00 in 28.00 W/m2
06:59 41.2 °F 35.8 °F 30.02 in Calm   1.0 mph 81% 0.00 in 28.00 W/m2
07:00 41.2 °F 35.8 °F 30.02 in Calm     81% 0.00 in 30.00 W/m2
07:02 41.2 °F 35.8 °F 30.02 in Calm     81% 0.00 in 30.00 W/m2
07:03 41.2 °F 35.8 °F 30.02 in Calm     81% 0.00 in 30.00 W/m2
07:05 41.2 °F 35.8 °F 30.02 in Calm     81% 0.00 in 32.00 W/m2
07:08 41.2 °F 35.8 °F 30.02 in Calm     81% 0.00 in 33.00 W/m2
07:10 41.2 °F 37.3 °F 30.02 in Calm     86% 0.00 in 33.00 W/m2
07:11 41.2 °F 35.8 °F 30.02 in Calm     81% 0.00 in 37.00 W/m2
07:13 41.3 °F 35.9 °F 30.02 in NE 2.0 mph 5.0 mph 81% 0.00 in 35.00 W/m2
07:15 41.3 °F 35.9 °F 30.02 in Calm   5.0 mph 81% 0.00 in 37.00 W/m2
07:16 41.4 °F 36.0 °F 30.02 in NE 2.0 mph 5.0 mph 81% 0.00 in 37.00 W/m2
07:18 41.5 °F 36.4 °F 30.02 in Calm   5.0 mph 82% 0.00 in 40.00 W/m2
07:19 41.5 °F 36.4 °F 30.02 in NE 1.0 mph 5.0 mph 82% 0.00 in 58.00 W/m2
07:20 41.6 °F 36.5 °F 30.02 in Calm     82% 0.00 in 53.00 W/m2
07:22 41.7 °F 36.6 °F 30.02 in Calm     82% 0.00 in 49.00 W/m2
07:23 41.8 °F 36.7 °F 30.03 in Calm   1.0 mph 82% 0.00 in 79.00 W/m2
07:24 41.8 °F 36.7 °F 30.03 in NE 3.0 mph 3.0 mph 82% 0.00 in 79.00 W/m2
07:26 42.0 °F 36.9 °F 30.02 in Calm   3.0 mph 82% 0.00 in 104.00 W/m2
07:27 42.2 °F 37.1 °F 30.03 in Calm   3.0 mph 82% 0.00 in 155.00 W/m2
07:28 42.4 °F 37.3 °F 30.03 in Calm   3.0 mph 82% 0.00 in 160.00 W/m2
07:29 42.6 °F 37.5 °F 30.03 in NE 2.0 mph 3.0 mph 82% 0.00 in 156.00 W/m2
07:32 42.8 °F 37.4 °F 30.03 in Calm   1.0 mph 81% 0.00 in 141.00 W/m2
07:33 43.0 °F 37.6 °F 30.03 in NE 2.0 mph 5.0 mph 81% 0.00 in 113.00 W/m2
07:34 43.1 °F 37.7 °F 30.03 in NE 2.0 mph 5.0 mph 81% 0.00 in 113.00 W/m2
07:36 43.3 °F 37.6 °F 30.03 in Calm   5.0 mph 80% 0.00 in 142.00 W/m2
07:37 43.4 °F 37.7 °F 30.03 in Calm   5.0 mph 80% 0.00 in 121.00 W/m2
07:39 43.5 °F 37.8 °F 30.03 in NE 1.0 mph 5.0 mph 80% 0.00 in 142.00 W/m2
07:41 43.8 °F 37.7 °F 30.03 in Calm     79% 0.00 in 176.00 W/m2
07:42 43.9 °F 37.8 °F 30.03 in NE 2.0 mph 2.0 mph 79% 0.00 in 192.00 W/m2
07:44 44.0 °F 37.9 °F 30.03 in NE 1.0 mph 3.0 mph 79% 0.00 in 98.00 W/m2
07:47 44.3 °F 38.2 °F 30.03 in Calm   3.0 mph 79% 0.00 in 84.00 W/m2
07:49 44.4 °F 38.3 °F 30.03 in Calm   3.0 mph 79% 0.00 in 74.00 W/m2
07:50 44.5 °F 38.4 °F 30.03 in Calm   3.0 mph 79% 0.00 in 83.00 W/m2
07:52 44.7 °F 38.3 °F 30.03 in NE 1.0 mph 1.0 mph 78% 0.00 in 72.00 W/m2
07:53 44.8 °F 38.4 °F 30.03 in NE 2.0 mph 2.0 mph 78% 0.00 in 65.00 W/m2
07:54 44.9 °F 38.5 °F 30.03 in Calm   3.0 mph 78% 0.00 in 62.00 W/m2
07:55 45.0 °F 38.6 °F 30.03 in Calm   3.0 mph 78% 0.00 in 116.00 W/m2
07:58 45.5 °F 38.7 °F 30.03 in NNE 2.0 mph 4.0 mph 77% 0.00 in 151.00 W/m2
07:59 45.8 °F 39.0 °F 30.02 in NNE 3.0 mph 4.0 mph 77% 0.00 in 172.00 W/m2
08:00 46.1 °F 39.0 °F 30.03 in North 4.0 mph 6.0 mph 76% 0.00 in 207.00 W/m2
08:03 46.9 °F 39.1 °F 30.03 in WNW 4.0 mph 7.0 mph 74% 0.00 in 255.00 W/m2
08:04 47.0 °F 39.2 °F 30.02 in WNW 3.0 mph 7.0 mph 74% 0.00 in 265.00 W/m2
08:05 47.3 °F 39.1 °F 30.02 in WNW 4.0 mph 7.0 mph 73% 0.00 in 272.00 W/m2
08:08 47.9 °F 39.3 °F 30.02 in WNW 7.0 mph 10.0 mph 72% 0.00 in 295.00 W/m2
08:09 48.0 °F 39.4 °F 30.03 in WNW 6.0 mph 10.0 mph 72% 0.00 in 295.00 W/m2
08:11 48.4 °F 39.4 °F 30.02 in WNW 7.0 mph 11.0 mph 71% 0.00 in 278.00 W/m2
08:13 48.9 °F 38.1 °F 30.02 in WNW 13.0 mph 13.0 mph 66% 0.00 in 315.00 W/m2
08:14 49.1 °F 38.2 °F 30.02 in WNW 15.0 mph 15.0 mph 66% 0.00 in 318.00 W/m2
08:16 49.5 °F 37.0 °F 30.02 in NW 11.0 mph 15.0 mph 62% 0.00 in 325.00 W/m2
08:19 50.0 °F 36.7 °F 30.02 in WNW 8.0 mph 15.0 mph 60% 0.00 in 334.00 W/m2
08:21 50.7 °F 36.9 °F 30.02 in WNW 12.0 mph 15.0 mph 59% 0.00 in 343.00 W/m2
08:24 51.5 °F 37.2 °F 30.02 in NW 6.0 mph 15.0 mph 58% 0.00 in 350.00 W/m2
08:26 52.3 °F 37.1 °F 30.02 in WNW 15.0 mph 15.0 mph 56% 0.00 in 362.00 W/m2
08:27 52.5 °F 36.8 °F 30.02 in NW 9.0 mph 15.0 mph 55% 0.00 in 364.00 W/m2
08:29 52.9 °F 37.2 °F 30.02 in WNW 19.0 mph 19.0 mph 55% 0.00 in 373.00 W/m2
08:32 53.2 °F 36.0 °F 30.02 in NW 17.0 mph 17.0 mph 52% 0.00 in 378.00 W/m2
08:35 53.3 °F 35.7 °F 30.02 in NW 12.0 mph 17.0 mph 51% 0.00 in 390.00 W/m2
08:37 53.6 °F 37.4 °F 30.02 in NW 5.0 mph 17.0 mph 54% 0.00 in 396.00 W/m2
08:40 53.9 °F 36.2 °F 30.02 in WNW 5.0 mph 17.0 mph 51% 0.00 in 408.00 W/m2
08:43 54.2 °F 36.5 °F 30.02 in NW 9.0 mph 11.0 mph 51% 0.00 in 417.00 W/m2
08:45 54.5 °F 35.8 °F 30.02 in WNW 7.0 mph 15.0 mph 49% 0.00 in 425.00 W/m2
08:48 55.0 °F 35.7 °F 30.02 in NW 14.0 mph 15.0 mph 48% 0.00 in 434.00 W/m2
08:49 55.0 °F 35.7 °F 30.02 in NW 13.0 mph 15.0 mph 48% 0.00 in 439.00 W/m2
08:50 55.1 °F 34.7 °F 30.02 in NW 6.0 mph 10.0 mph 46% 0.00 in 441.00 W/m2
08:54 55.5 °F 34.5 °F 30.02 in NW 6.0 mph 18.0 mph 45% 0.00 in 455.00 W/m2
08:56 55.7 °F 34.7 °F 30.02 in NW 13.0 mph 18.0 mph 45% 0.00 in 461.00 W/m2
08:59 56.1 °F 33.9 °F 30.02 in WNW 11.0 mph 18.0 mph 43% 0.00 in 473.00 W/m2
09:01 56.2 °F 34.0 °F 30.02 in NW 15.0 mph 21.0 mph 43% 0.00 in 476.00 W/m2
09:04 56.4 °F 32.4 °F 30.02 in NW 16.0 mph 21.0 mph 40% 0.00 in 490.00 W/m2
09:06 56.5 °F 32.5 °F 30.02 in NNW 9.0 mph 21.0 mph 40% 0.00 in 494.00 W/m2
09:09 56.8 °F 33.4 °F 30.02 in NW 9.0 mph 21.0 mph 41% 0.00 in 508.00 W/m2
09:10 56.8 °F 31.5 °F 30.02 in WNW 12.0 mph 12.0 mph 38% 0.00 in 508.00 W/m2
09:11 57.0 °F 32.9 °F 30.02 in NW 11.0 mph 18.0 mph 40% 0.00 in 513.00 W/m2
09:12 57.0 °F 32.9 °F 30.02 in NNW 9.0 mph 18.0 mph 40% 0.00 in 513.00 W/m2
09:15 57.2 °F 31.8 °F 30.02 in WNW 14.0 mph 19.0 mph 38% 0.00 in 524.00 W/m2
09:17 57.3 °F 31.9 °F 30.02 in North 12.0 mph 22.0 mph 38% 0.00 in 531.00 W/m2
09:20 57.4 °F 30.0 °F 30.02 in WNW 20.0 mph 20.0 mph 35% 0.00 in 541.00 W/m2
09:22 57.4 °F 30.0 °F 30.02 in WNW 10.0 mph 20.0 mph 35% 0.00 in 548.00 W/m2
09:25 57.7 °F 32.3 °F 30.03 in WNW 10.0 mph 21.0 mph 38% 0.00 in 559.00 W/m2
09:26 57.9 °F 31.8 °F 30.03 in NW 11.0 mph 21.0 mph 37% 0.00 in 563.00 W/m2
09:27 58.0 °F 31.2 °F 30.03 in NNW 10.0 mph 21.0 mph 36% 0.00 in 564.00 W/m2
09:28 58.1 °F 31.3 °F 30.03 in WNW 12.0 mph 21.0 mph 36% 0.00 in 568.00 W/m2
09:31 58.1 °F 32.0 °F 30.03 in NW 12.0 mph 17.0 mph 37% 0.00 in 578.00 W/m2
09:32 58.1 °F 32.0 °F 30.03 in NW 11.0 mph 17.0 mph 37% 0.00 in 580.00 W/m2
09:33 58.2 °F 32.1 °F 30.03 in NW 11.0 mph 17.0 mph 37% 0.00 in 582.00 W/m2
09:36 58.3 °F 29.3 °F 30.03 in West 18.0 mph 19.0 mph 33% 0.00 in 592.00 W/m2
09:37 58.3 °F 30.8 °F 30.03 in WNW 16.0 mph 19.0 mph 35% 0.00 in 596.00 W/m2
09:38 58.2 °F 30.0 °F 30.03 in NW 11.0 mph 19.0 mph 34% 0.00 in 598.00 W/m2
09:39 58.2 °F 30.0 °F 30.03 in NW 20.0 mph 23.0 mph 34% 0.00 in 599.00 W/m2
09:41 58.1 °F 29.2 °F 30.03 in NNW 20.0 mph 20.0 mph 33% 0.00 in 608.00 W/m2
09:42 58.0 °F 29.1 °F 30.03 in NW 11.0 mph 20.0 mph 33% 0.00 in 612.00 W/m2
09:43 58.0 °F 29.1 °F 30.03 in NW 22.0 mph 24.0 mph 33% 0.00 in 612.00 W/m2
09:46 58.0 °F 29.1 °F 30.04 in WNW 17.0 mph 24.0 mph 33% 0.00 in 622.00 W/m2
09:48 57.9 °F 28.2 °F 30.03 in WNW 15.0 mph 24.0 mph 32% 0.00 in 628.00 W/m2
09:51 58.2 °F 30.7 °F 30.03 in NW 14.0 mph 22.0 mph 35% 0.00 in 635.00 W/m2
09:53 58.6 °F 29.6 °F 30.03 in NW 18.0 mph 22.0 mph 33% 0.00 in 640.00 W/m2
09:56 58.6 °F 27.3 °F 30.04 in WNW 10.0 mph 23.0 mph 30% 0.00 in 650.00 W/m2
09:58 58.4 °F 27.9 °F 30.04 in NW 13.0 mph 27.0 mph 31% 0.00 in 652.00 W/m2
10:01 58.6 °F 27.3 °F 30.03 in NW 14.0 mph 25.0 mph 30% 0.00 in 663.00 W/m2
10:03 58.8 °F 30.5 °F 30.04 in NW 27.0 mph 27.0 mph 34% 0.00 in 670.00 W/m2
10:04 58.9 °F 30.6 °F 30.04 in NW 20.0 mph 27.0 mph 34% 0.00 in 670.00 W/m2
10:09 58.5 °F 26.4 °F 30.04 in NW 11.0 mph 28.0 mph 29% 0.00 in 682.00 W/m2
10:10 58.4 °F 27.1 °F 30.04 in NNW 12.0 mph 28.0 mph 30% 0.00 in 686.00 W/m2
10:14 58.6 °F 27.3 °F 30.04 in WNW 21.0 mph 32.0 mph 30% 0.00 in 700.00 W/m2
10:15 58.5 °F 27.2 °F 30.04 in WNW 17.0 mph 32.0 mph 30% 0.00 in 700.00 W/m2
10:19 58.5 °F 27.2 °F 30.04 in NNW 11.0 mph 32.0 mph 30% 0.00 in 710.00 W/m2
10:20 58.5 °F 27.2 °F 30.04 in NW 10.0 mph 32.0 mph 30% 0.00 in 712.00 W/m2
10:21 58.6 °F 28.1 °F 30.04 in NW 20.0 mph 23.0 mph 31% 0.00 in 715.00 W/m2
10:24 58.8 °F 28.3 °F 30.03 in WNW 19.0 mph 30.0 mph 31% 0.00 in 722.00 W/m2
10:25 58.8 °F 28.3 °F 30.03 in WNW 18.0 mph 30.0 mph 31% 0.00 in 726.00 W/m2
10:27 58.8 °F 27.5 °F 30.04 in NW 18.0 mph 30.0 mph 30% 0.00 in 731.00 W/m2
10:30 58.8 °F 25.8 °F 30.04 in WNW 24.0 mph 24.0 mph 28% 0.00 in 738.00 W/m2
10:32 58.6 °F 26.5 °F 30.04 in WNW 22.0 mph 26.0 mph 29% 0.00 in 744.00 W/m2
10:35 58.4 °F 27.1 °F 30.04 in WNW 28.0 mph 28.0 mph 30% 0.00 in 752.00 W/m2
10:36 58.4 °F 26.3 °F 30.04 in NNW 21.0 mph 28.0 mph 29% 0.00 in 752.00 W/m2
10:38 58.7 °F 28.2 °F 30.04 in NW 6.0 mph 31.0 mph 31% 0.00 in 756.00 W/m2
10:41 59.1 °F 30.0 °F 30.04 in WNW 12.0 mph 16.0 mph 33% 0.00 in 765.00 W/m2
10:42 59.4 °F 28.8 °F 30.04 in WNW 12.0 mph 18.0 mph 31% 0.00 in 765.00 W/m2
10:46 59.3 °F 27.9 °F 30.03 in NW 10.0 mph 26.0 mph 30% 0.00 in 777.00 W/m2
10:47 59.3 °F 28.7 °F 30.03 in NW 18.0 mph 26.0 mph 31% 0.00 in 773.00 W/m2
10:48 59.3 °F 28.7 °F 30.03 in NNW 16.0 mph 26.0 mph 31% 0.00 in 773.00 W/m2
10:51 59.3 °F 29.5 °F 30.03 in WNW 14.0 mph 14.0 mph 32% 0.00 in 786.00 W/m2
10:52 59.6 °F 29.7 °F 30.03 in NW 20.0 mph 25.0 mph 32% 0.00 in 788.00 W/m2
10:53 59.6 °F 28.1 °F 30.03 in WNW 23.0 mph 25.0 mph 30% 0.00 in 793.00 W/m2
10:56 59.0 °F 27.6 °F 30.04 in WNW 15.0 mph 26.0 mph 30% 0.00 in 796.00 W/m2
10:58 59.0 °F 26.8 °F 30.03 in NW 19.0 mph 27.0 mph 29% 0.00 in 803.00 W/m2
11:00 58.8 °F 26.6 °F 30.03 in WNW 23.0 mph 27.0 mph 29% 0.00 in 800.00 W/m2
11:02 59.2 °F 29.4 °F 30.03 in NW 15.0 mph 24.0 mph 32% 0.00 in 807.00 W/m2
11:03 59.6 °F 28.1 °F 30.03 in NW 16.0 mph 27.0 mph 30% 0.00 in 816.00 W/m2
11:05 59.8 °F 27.5 °F 30.03 in WNW 19.0 mph 27.0 mph 29% 0.00 in 809.00 W/m2
11:07 60.0 °F 28.5 °F 30.03 in NW 15.0 mph 31.0 mph 30% 0.00 in 821.00 W/m2
11:08 60.1 °F 28.6 °F 30.03 in WNW 7.0 mph 31.0 mph 30% 0.00 in 824.00 W/m2
11:09 60.1 °F 30.2 °F 30.03 in WNW 13.0 mph 31.0 mph 32% 0.00 in 824.00 W/m2
11:10 60.3 °F 29.6 °F 30.03 in WNW 15.0 mph 21.0 mph 31% 0.00 in 826.00 W/m2
11:12 60.3 °F 27.9 °F 30.02 in NW 11.0 mph 21.0 mph 29% 0.00 in 828.00 W/m2
11:13 60.5 °F 29.7 °F 30.03 in NW 18.0 mph 21.0 mph 31% 0.00 in 833.00 W/m2
11:14 60.6 °F 29.8 °F 30.02 in WNW 26.0 mph 26.0 mph 31% 0.00 in 833.00 W/m2
11:15 60.6 °F 27.3 °F 30.02 in NW 15.0 mph 26.0 mph 28% 0.00 in 824.00 W/m2
11:17 60.5 °F 27.3 °F 30.03 in NW 23.0 mph 33.0 mph 28% 0.00 in 835.00 W/m2
11:18 60.2 °F 27.0 °F 30.03 in WNW 25.0 mph 33.0 mph 28% 0.00 in 840.00 W/m2
11:19 60.1 °F 26.0 °F 30.03 in WNW 28.0 mph 33.0 mph 27% 0.00 in 842.00 W/m2
11:21 59.9 °F 26.7 °F 30.03 in WNW 17.0 mph 21.0 mph 28% 0.00 in 842.00 W/m2
11:22 59.9 °F 25.9 °F 30.03 in WNW 18.0 mph 26.0 mph 27% 0.00 in 849.00 W/m2
11:24 60.0 °F 26.0 °F 30.03 in NNW 19.0 mph 30.0 mph 27% 0.00 in 846.00 W/m2
11:26 59.8 °F 26.6 °F 30.03 in WNW 22.0 mph 30.0 mph 28% 0.00 in 853.00 W/m2
11:27 59.8 °F 26.6 °F 30.02 in WNW 13.0 mph 30.0 mph 28% 0.00 in 853.00 W/m2
11:29 59.8 °F 26.6 °F 30.02 in WNW 22.0 mph 30.0 mph 28% 0.00 in 854.00 W/m2
11:31 59.8 °F 25.8 °F 30.02 in West 14.0 mph 18.0 mph 27% 0.00 in 856.00 W/m2
11:32 59.8 °F 26.6 °F 30.02 in NW 27.0 mph 27.0 mph 28% 0.00 in 860.00 W/m2
11:34 60.2 °F 28.7 °F 30.02 in NW 17.0 mph 27.0 mph 30% 0.00 in 860.00 W/m2
11:35 60.3 °F 28.8 °F 30.02 in WNW 16.0 mph 27.0 mph 30% 0.00 in 861.00 W/m2
11:36 60.7 °F 28.3 °F 30.02 in WNW 15.0 mph 27.0 mph 29% 0.00 in 865.00 W/m2
11:38 60.7 °F 28.3 °F 30.02 in NW 30.0 mph 30.0 mph 29% 0.00 in 868.00 W/m2
11:39 60.6 °F 26.5 °F 30.02 in NW 12.0 mph 30.0 mph 27% 0.00 in 872.00 W/m2
11:40 60.6 °F 26.5 °F 30.02 in NW 9.0 mph 15.0 mph 27% 0.00 in 875.00 W/m2
11:42 60.6 °F 27.3 °F 30.02 in WNW 22.0 mph 24.0 mph 28% 0.00 in 872.00 W/m2
11:43 60.6 °F 26.5 °F 30.02 in WNW 13.0 mph 26.0 mph 27% 0.00 in 872.00 W/m2
11:44 60.8 °F 26.6 °F 30.02 in NW 16.0 mph 26.0 mph 27% 0.00 in 875.00 W/m2
11:46 61.1 °F 26.9 °F 30.02 in NW 15.0 mph 26.0 mph 27% 0.00 in 877.00 W/m2
11:48 61.1 °F 26.9 °F 30.02 in WNW 16.0 mph 26.0 mph 27% 0.00 in 884.00 W/m2
11:49 61.1 °F 26.9 °F 30.02 in NNW 12.0 mph 26.0 mph 27% 0.00 in 884.00 W/m2
11:52 61.0 °F 27.7 °F 30.01 in WNW 10.0 mph 23.0 mph 28% 0.00 in 889.00 W/m2
11:53 61.1 °F 27.8 °F 30.02 in WNW 18.0 mph 27.0 mph 28% 0.00 in 893.00 W/m2
11:54 61.3 °F 27.1 °F 30.02 in WNW 21.0 mph 27.0 mph 27% 0.00 in 891.00 W/m2
11:58 61.1 °F 26.9 °F 30.01 in WNW 16.0 mph 29.0 mph 27% 0.00 in 896.00 W/m2
11:59 61.1 °F 26.9 °F 30.01 in NW 16.0 mph 29.0 mph 27% 0.00 in 895.00 W/m2
12:03 61.0 °F 26.8 °F 30.01 in NW 25.0 mph 31.0 mph 27% 0.00 in 907.00 W/m2
12:04 61.0 °F 25.9 °F 30.01 in NW 17.0 mph 31.0 mph 26% 0.00 in 902.00 W/m2
12:07 61.6 °F 29.1 °F 30.01 in NW 22.0 mph 31.0 mph 29% 0.00 in 900.00 W/m2
12:09 61.6 °F 27.3 °F 30.01 in NW 23.0 mph 31.0 mph 27% 0.00 in 916.00 W/m2
12:10 61.4 °F 26.2 °F 30.01 in NW 19.0 mph 26.0 mph 26% 0.00 in 919.00 W/m2
12:12 61.2 °F 25.1 °F 30.01 in NW 16.0 mph 31.0 mph 25% 0.00 in 928.00 W/m2
12:15 60.8 °F 25.7 °F 30.01 in NNW 13.0 mph 31.0 mph 26% 0.00 in 928.00 W/m2
12:17 60.7 °F 26.5 °F 30.01 in WNW 17.0 mph 31.0 mph 27% 0.00 in 918.00 W/m2
12:20 60.9 °F 24.9 °F 30.01 in NW 29.0 mph 29.0 mph 25% 0.00 in 923.00 W/m2
12:21 60.9 °F 24.9 °F 30.01 in WNW 17.0 mph 29.0 mph 25% 0.00 in 926.00 W/m2
12:22 60.8 °F 25.7 °F 30.01 in WNW 10.0 mph 29.0 mph 26% 0.00 in 942.00 W/m2
12:26 61.2 °F 24.1 °F 30.01 in WNW 18.0 mph 29.0 mph 24% 0.00 in 939.00 W/m2
12:28 61.3 °F 26.1 °F 30.01 in NW 11.0 mph 29.0 mph 26% 0.00 in 940.00 W/m2
12:31 61.6 °F 26.4 °F 30.01 in WNW 12.0 mph 20.0 mph 26% 0.00 in 923.00 W/m2
12:33 61.9 °F 28.5 °F 30.01 in NW 12.0 mph 23.0 mph 28% 0.00 in 925.00 W/m2
12:36 62.1 °F 25.9 °F 30.01 in WNW 22.0 mph 30.0 mph 25% 0.00 in 939.00 W/m2
12:37 62.0 °F 25.8 °F 30.01 in NW 25.0 mph 32.0 mph 25% 0.00 in 949.00 W/m2
12:39 61.7 °F 24.6 °F 30.01 in West 23.0 mph 32.0 mph 24% 0.00 in 953.00 W/m2
12:40 61.5 °F 24.4 °F 30.01 in NW 17.0 mph 32.0 mph 24% 0.00 in 958.00 W/m2
12:42 61.6 °F 29.1 °F 30.01 in NW 22.0 mph 22.0 mph 29% 0.00 in 1004.00 W/m2
12:44 61.8 °F 25.6 °F 30.00 in WNW 23.0 mph 30.0 mph 25% 0.00 in 1004.00 W/m2
12:45 61.6 °F 25.5 °F 30.01 in NW 18.0 mph 30.0 mph 25% 0.00 in 1004.00 W/m2
12:46 61.3 °F 25.2 °F 30.01 in NW 18.0 mph 30.0 mph 25% 0.00 in 951.00 W/m2
12:47 61.2 °F 26.1 °F 30.00 in WNW 16.0 mph 30.0 mph 26% 0.00 in 956.00 W/m2
12:50 61.3 °F 26.1 °F 30.00 in West 18.0 mph 30.0 mph 26% 0.00 in 940.00 W/m2
12:51 61.7 °F 26.5 °F 30.01 in NNW 19.0 mph 23.0 mph 26% 0.00 in 944.00 W/m2
12:53 61.8 °F 25.6 °F 30.00 in WNW 15.0 mph 30.0 mph 25% 0.00 in 944.00 W/m2
12:55 61.8 °F 26.6 °F 30.00 in WNW 15.0 mph 30.0 mph 26% 0.00 in 946.00 W/m2
12:56 61.9 °F 25.7 °F 30.00 in WNW 18.0 mph 30.0 mph 25% 0.00 in 947.00 W/m2
12:58 62.0 °F 27.7 °F 30.00 in WNW 13.0 mph 30.0 mph 27% 0.00 in 953.00 W/m2
13:01 62.3 °F 26.1 °F 30.00 in NW 14.0 mph 24.0 mph 25% 0.00 in 969.00 W/m2
13:03 62.1 °F 25.9 °F 30.00 in WNW 19.0 mph 26.0 mph 25% 0.00 in 942.00 W/m2
13:07 62.3 °F 26.1 °F 30.00 in WNW 21.0 mph 26.0 mph 25% 0.00 in 912.00 W/m2
13:08 62.1 °F 25.9 °F 30.00 in WNW 17.0 mph 27.0 mph 25% 0.00 in 969.00 W/m2
13:12 62.6 °F 28.2 °F 30.00 in NW 27.0 mph 33.0 mph 27% 0.00 in 933.00 W/m2
13:13 62.5 °F 25.2 °F 30.00 in NW 20.0 mph 33.0 mph 24% 0.00 in 933.00 W/m2
13:14 62.5 °F 27.2 °F 30.00 in WNW 14.0 mph 33.0 mph 26% 0.00 in 946.00 W/m2
13:15 62.6 °F 28.2 °F 30.00 in NW 22.0 mph 33.0 mph 27% 0.00 in 946.00 W/m2
13:17 62.5 °F 26.2 °F 30.00 in WNW 18.0 mph 33.0 mph 25% 0.00 in 960.00 W/m2
13:18 62.4 °F 26.1 °F 30.00 in West 20.0 mph 33.0 mph 25% 0.00 in 949.00 W/m2
13:19 62.4 °F 26.1 °F 29.99 in WSW 10.0 mph 33.0 mph 25% 0.00 in 947.00 W/m2
13:20 62.4 °F 28.0 °F 30.00 in WNW 23.0 mph 23.0 mph 27% 0.00 in 953.00 W/m2
13:22 62.8 °F 27.4 °F 30.00 in NW 17.0 mph 29.0 mph 26% 0.00 in 967.00 W/m2
13:23 62.8 °F 29.2 °F 29.99 in NW 15.0 mph 29.0 mph 28% 0.00 in 967.00 W/m2
13:25 62.7 °F 29.1 °F 29.99 in North 13.0 mph 29.0 mph 28% 0.00 in 993.00 W/m2
13:27 62.3 °F 27.9 °F 30.00 in NW 18.0 mph 29.0 mph 27% 0.00 in 1000.00 W/m2
13:29 62.2 °F 26.9 °F 29.99 in WNW 22.0 mph 33.0 mph 26% 0.00 in 974.00 W/m2
13:30 62.2 °F 26.9 °F 29.99 in West 15.0 mph 24.0 mph 26% 0.00 in 942.00 W/m2
13:32 62.1 °F 27.8 °F 29.99 in NW 17.0 mph 24.0 mph 27% 0.00 in 949.00 W/m2
13:34 61.9 °F 26.7 °F 29.99 in WNW 21.0 mph 27.0 mph 26% 0.00 in 956.00 W/m2
13:35 61.8 °F 26.6 °F 29.99 in WNW 14.0 mph 27.0 mph 26% 0.00 in 956.00 W/m2
13:38 61.9 °F 28.5 °F 29.99 in WNW 18.0 mph 27.0 mph 28% 0.00 in 930.00 W/m2
13:40 62.1 °F 27.8 °F 29.99 in West 20.0 mph 24.0 mph 27% 0.00 in 963.00 W/m2
13:41 62.1 °F 26.8 °F 29.99 in West 23.0 mph 24.0 mph 26% 0.00 in 963.00 W/m2
13:43 62.1 °F 26.8 °F 29.99 in West 14.0 mph 24.0 mph 26% 0.00 in 919.00 W/m2
13:44 62.0 °F 26.8 °F 29.99 in NW 14.0 mph 24.0 mph 26% 0.00 in 921.00 W/m2
13:45 61.9 °F 26.7 °F 29.99 in NW 19.0 mph 24.0 mph 26% 0.00 in 942.00 W/m2
13:47 62.1 °F 27.8 °F 29.99 in NW 21.0 mph 29.0 mph 27% 0.00 in 1016.00 W/m2
13:48 62.2 °F 27.8 °F 29.99 in NW 15.0 mph 29.0 mph 27% 0.00 in 988.00 W/m2
13:51 62.4 °F 28.0 °F 29.99 in NW 30.0 mph 30.0 mph 27% 0.00 in 933.00 W/m2
13:52 62.6 °F 28.2 °F 29.99 in WNW 16.0 mph 32.0 mph 27% 0.00 in 932.00 W/m2
13:53 62.8 °F 28.4 °F 29.99 in West 11.0 mph 32.0 mph 27% 0.00 in 939.00 W/m2
13:56 62.9 °F 28.4 °F 29.99 in NW 18.0 mph 32.0 mph 27% 0.00 in 926.00 W/m2
13:57 63.0 °F 28.5 °F 29.99 in NW 13.0 mph 32.0 mph 27% 0.00 in 928.00 W/m2
13:58 63.1 °F 28.6 °F 29.99 in WNW 14.0 mph 32.0 mph 27% 0.00 in 911.00 W/m2
13:59 63.3 °F 29.7 °F 29.98 in NW 12.0 mph 32.0 mph 28% 0.00 in 898.00 W/m2
14:01 63.6 °F 29.0 °F 29.99 in NW 16.0 mph 26.0 mph 27% 0.00 in 895.00 W/m2
14:02 63.6 °F 27.2 °F 29.98 in NW 14.0 mph 26.0 mph 25% 0.00 in 898.00 W/m2
14:04 63.1 °F 27.7 °F 29.98 in NW 20.0 mph 26.0 mph 26% 0.00 in 925.00 W/m2
14:05 63.0 °F 27.6 °F 29.98 in NW 18.0 mph 26.0 mph 26% 0.00 in 914.00 W/m2
14:07 62.9 °F 28.4 °F 29.98 in WNW 14.0 mph 26.0 mph 27% 0.00 in 909.00 W/m2
14:09 62.9 °F 28.4 °F 29.98 in WNW 19.0 mph 26.0 mph 27% 0.00 in 904.00 W/m2
14:10 63.0 °F 29.4 °F 29.98 in West 17.0 mph 18.0 mph 28% 0.00 in 900.00 W/m2
14:12 63.1 °F 27.7 °F 29.98 in WNW 22.0 mph 28.0 mph 26% 0.00 in 896.00 W/m2
14:14 62.8 °F 27.4 °F 29.98 in WNW 15.0 mph 28.0 mph 26% 0.00 in 875.00 W/m2
14:15 62.8 °F 27.4 °F 29.98 in West 12.0 mph 28.0 mph 26% 0.00 in 875.00 W/m2
14:18 63.0 °F 28.5 °F 29.98 in WNW 19.0 mph 28.0 mph 27% 0.00 in 874.00 W/m2
14:19 63.1 °F 29.5 °F 29.98 in NW 15.0 mph 28.0 mph 28% 0.00 in 875.00 W/m2
14:20 63.1 °F 28.6 °F 29.98 in WNW 22.0 mph 23.0 mph 27% 0.00 in 875.00 W/m2
14:21 63.3 °F 28.8 °F 29.97 in NW 16.0 mph 26.0 mph 27% 0.00 in 884.00 W/m2
14:23 63.3 °F 29.7 °F 29.98 in NW 11.0 mph 26.0 mph 28% 0.00 in 930.00 W/m2
14:25 63.3 °F 27.9 °F 29.98 in West 17.0 mph 26.0 mph 26% 0.00 in 932.00 W/m2
14:26 63.3 °F 26.9 °F 29.97 in WNW 21.0 mph 26.0 mph 25% 0.00 in 911.00 W/m2
14:28 63.3 °F 27.9 °F 29.98 in West 14.0 mph 26.0 mph 26% 0.00 in 875.00 W/m2
14:31 63.2 °F 26.8 °F 29.97 in WNW 19.0 mph 26.0 mph 25% 0.00 in 858.00 W/m2
14:32 63.2 °F 26.8 °F 29.97 in NW 15.0 mph 26.0 mph 25% 0.00 in 858.00 W/m2
14:33 63.1 °F 27.7 °F 29.97 in NW 15.0 mph 27.0 mph 26% 0.00 in 849.00 W/m2
14:37 63.3 °F 28.8 °F 29.97 in NW 11.0 mph 27.0 mph 27% 0.00 in 860.00 W/m2
14:38 63.3 °F 26.9 °F 29.97 in WNW 19.0 mph 27.0 mph 25% 0.00 in 810.00 W/m2
14:42 62.8 °F 26.5 °F 29.97 in NW 20.0 mph 30.0 mph 25% 0.00 in 842.00 W/m2
14:43 62.8 °F 27.4 °F 29.97 in WNW 12.0 mph 30.0 mph 26% 0.00 in 842.00 W/m2
14:48 63.2 °F 27.8 °F 29.97 in NW 22.0 mph 30.0 mph 26% 0.00 in 840.00 W/m2
14:53 62.9 °F 27.5 °F 29.97 in WNW 20.0 mph 25.0 mph 26% 0.00 in 884.00 W/m2
14:56 63.1 °F 26.7 °F 29.96 in WNW 14.0 mph 29.0 mph 25% 0.00 in 828.00 W/m2
14:58 63.1 °F 27.7 °F 29.96 in WNW 14.0 mph 29.0 mph 26% 0.00 in 828.00 W/m2
14:59 63.1 °F 26.7 °F 29.97 in WNW 26.0 mph 29.0 mph 25% 0.00 in 823.00 W/m2
15:01 62.9 °F 26.6 °F 29.97 in West 19.0 mph 26.0 mph 25% 0.00 in 830.00 W/m2
15:03 62.4 °F 25.2 °F 29.96 in WNW 15.0 mph 26.0 mph 24% 0.00 in 830.00 W/m2
15:04 62.1 °F 25.9 °F 29.96 in WNW 16.0 mph 26.0 mph 25% 0.00 in 849.00 W/m2
15:07 62.2 °F 27.8 °F 29.96 in NW 17.0 mph 26.0 mph 27% 0.00 in 803.00 W/m2
15:08 62.6 °F 27.3 °F 29.96 in NW 25.0 mph 28.0 mph 26% 0.00 in 795.00 W/m2
15:09 62.7 °F 28.3 °F 29.96 in WNW 15.0 mph 28.0 mph 27% 0.00 in 802.00 W/m2
15:10 62.8 °F 28.4 °F 29.96 in NW 13.0 mph 28.0 mph 27% 0.00 in 802.00 W/m2
15:12 62.9 °F 27.5 °F 29.96 in WNW 14.0 mph 21.0 mph 26% 0.00 in 830.00 W/m2
15:14 63.3 °F 29.7 °F 29.95 in West 13.0 mph 21.0 mph 28% 0.00 in 830.00 W/m2
15:15 63.4 °F 29.8 °F 29.95 in NW 20.0 mph 25.0 mph 28% 0.00 in 833.00 W/m2
15:17 63.6 °F 27.2 °F 29.95 in West 13.0 mph 26.0 mph 25% 0.00 in 810.00 W/m2
15:20 63.3 °F 27.9 °F 29.96 in West 15.0 mph 28.0 mph 26% 0.00 in 772.00 W/m2
15:24 63.0 °F 26.6 °F 29.96 in West 5.0 mph 23.0 mph 25% 0.00 in 751.00 W/m2
15:25 63.0 °F 26.6 °F 29.96 in West 18.0 mph 23.0 mph 25% 0.00 in 751.00 W/m2
15:28 62.7 °F 26.4 °F 29.96 in WNW 19.0 mph 30.0 mph 25% 0.00 in 749.00 W/m2
15:30 62.7 °F 26.4 °F 29.96 in NW 29.0 mph 29.0 mph 25% 0.00 in 733.00 W/m2
15:34 62.5 °F 24.2 °F 29.95 in West 14.0 mph 33.0 mph 23% 0.00 in 729.00 W/m2
15:35 62.5 °F 25.2 °F 29.95 in WNW 19.0 mph 33.0 mph 24% 0.00 in 729.00 W/m2
15:36 62.5 °F 25.2 °F 29.96 in NNW 22.0 mph 33.0 mph 24% 0.00 in 729.00 W/m2
15:40 62.7 °F 25.4 °F 29.95 in WNW 17.0 mph 24.0 mph 24% 0.00 in 708.00 W/m2
15:41 62.7 °F 25.4 °F 29.95 in WNW 17.0 mph 24.0 mph 24% 0.00 in 714.00 W/m2
15:42 62.7 °F 26.4 °F 29.95 in WNW 23.0 mph 28.0 mph 25% 0.00 in 710.00 W/m2
15:46 62.7 °F 25.4 °F 29.95 in NW 14.0 mph 31.0 mph 24% 0.00 in 689.00 W/m2
15:47 62.8 °F 26.5 °F 29.95 in WNW 16.0 mph 31.0 mph 25% 0.00 in 689.00 W/m2
15:48 62.9 °F 27.5 °F 29.95 in WNW 20.0 mph 31.0 mph 26% 0.00 in 687.00 W/m2
15:51 63.1 °F 27.7 °F 29.95 in NNW 17.0 mph 26.0 mph 26% 0.00 in 705.00 W/m2
15:52 63.2 °F 27.8 °F 29.95 in NNW 23.0 mph 26.0 mph 26% 0.00 in 715.00 W/m2
15:54 63.1 °F 26.7 °F 29.95 in WNW 25.0 mph 26.0 mph 25% 0.00 in 715.00 W/m2
15:56 63.0 °F 27.6 °F 29.95 in WNW 21.0 mph 26.0 mph 26% 0.00 in 705.00 W/m2
15:57 63.1 °F 26.7 °F 29.95 in WNW 15.0 mph 26.0 mph 25% 0.00 in 698.00 W/m2
16:01 63.2 °F 26.8 °F 29.95 in NNW 13.0 mph 27.0 mph 25% 0.00 in 691.00 W/m2
16:02 63.2 °F 26.8 °F 29.95 in NW 16.0 mph 27.0 mph 25% 0.00 in 679.00 W/m2
16:06 63.0 °F 26.6 °F 29.94 in WNW 11.0 mph 27.0 mph 25% 0.00 in 647.00 W/m2
16:07 62.9 °F 26.6 °F 29.94 in West 21.0 mph 27.0 mph 25% 0.00 in 647.00 W/m2
16:11 62.3 °F 27.0 °F 29.94 in WSW 19.0 mph 23.0 mph 26% 0.00 in 663.00 W/m2
16:12 62.4 °F 27.1 °F 29.94 in WNW 19.0 mph 23.0 mph 26% 0.00 in 631.00 W/m2
16:14 62.7 °F 26.4 °F 29.94 in NW 24.0 mph 30.0 mph 25% 0.00 in 617.00 W/m2
16:16 62.6 °F 26.3 °F 29.94 in WNW 12.0 mph 32.0 mph 25% 0.00 in 608.00 W/m2
16:17 62.6 °F 26.3 °F 29.94 in WNW 13.0 mph 32.0 mph 25% 0.00 in 608.00 W/m2
16:20 62.2 °F 25.0 °F 29.94 in WNW 17.0 mph 32.0 mph 24% 0.00 in 88.00 W/m2
16:21 62.0 °F 25.8 °F 29.94 in WNW 20.0 mph 25.0 mph 25% 0.00 in 568.00 W/m2
16:22 62.0 °F 25.8 °F 29.94 in WNW 19.0 mph 25.0 mph 25% 0.00 in 568.00 W/m2
16:26 62.0 °F 25.8 °F 29.94 in WNW 18.0 mph 28.0 mph 25% 0.00 in 555.00 W/m2
16:27 61.8 °F 26.6 °F 29.94 in NW 18.0 mph 28.0 mph 26% 0.00 in 111.00 W/m2
16:28 61.7 °F 26.5 °F 29.94 in West 19.0 mph 31.0 mph 26% 0.00 in 111.00 W/m2
16:31 61.8 °F 24.6 °F 29.94 in NW 14.0 mph 25.0 mph 24% 0.00 in 559.00 W/m2
16:32 61.9 °F 24.7 °F 29.94 in WNW 25.0 mph 25.0 mph 24% 0.00 in 547.00 W/m2
16:33 62.0 °F 25.8 °F 29.94 in WNW 22.0 mph 33.0 mph 25% 0.00 in 547.00 W/m2
16:36 61.5 °F 23.4 °F 29.94 in NW 19.0 mph 33.0 mph 23% 0.00 in 160.00 W/m2
16:37 61.4 °F 24.3 °F 29.94 in WNW 33.0 mph 33.0 mph 24% 0.00 in 541.00 W/m2
16:38 61.3 °F 24.2 °F 29.94 in WNW 21.0 mph 33.0 mph 24% 0.00 in 531.00 W/m2
16:42 61.5 °F 25.4 °F 29.94 in WNW 15.0 mph 30.0 mph 25% 0.00 in 506.00 W/m2
16:43 61.6 °F 25.5 °F 29.94 in WNW 18.0 mph 30.0 mph 25% 0.00 in 485.00 W/m2
16:47 61.8 °F 25.6 °F 29.94 in NW 21.0 mph 31.0 mph 25% 0.00 in 209.00 W/m2
16:48 61.9 °F 25.7 °F 29.94 in WNW 19.0 mph 31.0 mph 25% 0.00 in 260.00 W/m2
16:53 61.9 °F 25.7 °F 29.94 in WNW 24.0 mph 26.0 mph 25% 0.00 in 236.00 W/m2
16:54 62.0 °F 24.8 °F 29.94 in WNW 25.0 mph 26.0 mph 24% 0.00 in 301.00 W/m2
16:58 61.8 °F 25.6 °F 29.93 in WNW 13.0 mph 27.0 mph 25% 0.00 in 236.00 W/m2
16:59 61.7 °F 26.5 °F 29.94 in West 18.0 mph 27.0 mph 26% 0.00 in 371.00 W/m2
17:03 62.0 °F 24.8 °F 29.94 in WNW 12.0 mph 27.0 mph 24% 0.00 in 394.00 W/m2
17:04 62.0 °F 24.8 °F 29.94 in NW 19.0 mph 27.0 mph 24% 0.00 in 294.00 W/m2
17:05 62.0 °F 24.8 °F 29.94 in WNW 25.0 mph 27.0 mph 24% 0.00 in 387.00 W/m2
17:09 61.8 °F 26.6 °F 29.94 in WNW 15.0 mph 31.0 mph 26% 0.00 in 178.00 W/m2
17:10 61.7 °F 25.5 °F 29.94 in West 20.0 mph 31.0 mph 25% 0.00 in 234.00 W/m2
17:14 61.5 °F 25.4 °F 29.94 in NW 16.0 mph 28.0 mph 25% 0.00 in 353.00 W/m2
17:15 61.5 °F 25.4 °F 29.93 in West 15.0 mph 28.0 mph 25% 0.00 in 199.00 W/m2
17:19 61.5 °F 24.4 °F 29.93 in NW 27.0 mph 30.0 mph 24% 0.00 in 142.00 W/m2
17:21 61.3 °F 24.2 °F 29.93 in WNW 25.0 mph 25.0 mph 24% 0.00 in 104.00 W/m2
17:24 61.1 °F 24.1 °F 29.94 in NW 15.0 mph 32.0 mph 24% 0.00 in 188.00 W/m2
17:26 61.0 °F 25.0 °F 29.93 in NW 26.0 mph 32.0 mph 25% 0.00 in 118.00 W/m2
17:29 61.0 °F 25.0 °F 29.94 in West 15.0 mph 32.0 mph 25% 0.00 in 116.00 W/m2
17:30 60.9 °F 24.9 °F 29.94 in West 22.0 mph 24.0 mph 25% 0.00 in 118.00 W/m2
17:33 60.9 °F 22.9 °F 29.93 in West 18.0 mph 28.0 mph 23% 0.00 in 197.00 W/m2
17:34 60.8 °F 22.8 °F 29.94 in West 20.0 mph 28.0 mph 23% 0.00 in 146.00 W/m2
17:35 60.7 °F 23.7 °F 29.94 in NW 24.0 mph 29.0 mph 24% 0.00 in 285.00 W/m2
17:37 60.7 °F 21.7 °F 29.94 in WNW 23.0 mph 29.0 mph 22% 0.00 in 262.00 W/m2
17:38 60.6 °F 21.6 °F 29.94 in NW 17.0 mph 29.0 mph 22% 0.00 in 257.00 W/m2
17:40 60.5 °F 23.5 °F 29.94 in WNW 11.0 mph 29.0 mph 24% 0.00 in 265.00 W/m2
17:41 60.4 °F 23.5 °F 29.94 in WNW 10.0 mph 19.0 mph 24% 0.00 in 195.00 W/m2
17:43 60.4 °F 23.5 °F 29.94 in WNW 22.0 mph 30.0 mph 24% 0.00 in 156.00 W/m2
17:45 60.3 °F 23.4 °F 29.94 in WNW 15.0 mph 30.0 mph 24% 0.00 in 192.00 W/m2
17:46 60.4 °F 23.5 °F 29.94 in NW 26.0 mph 30.0 mph 24% 0.00 in 251.00 W/m2
17:48 60.2 °F 22.3 °F 29.94 in WNW 14.0 mph 32.0 mph 23% 0.00 in 285.00 W/m2
17:49 60.2 °F 22.3 °F 29.94 in WNW 17.0 mph 32.0 mph 23% 0.00 in 281.00 W/m2
17:51 60.0 °F 22.1 °F 29.94 in WNW 15.0 mph 28.0 mph 23% 0.00 in 278.00 W/m2
17:54 60.0 °F 23.1 °F 29.94 in WNW 21.0 mph 28.0 mph 24% 0.00 in 264.00 W/m2
17:56 60.0 °F 23.1 °F 29.94 in West 17.0 mph 28.0 mph 24% 0.00 in 258.00 W/m2
17:59 60.0 °F 23.1 °F 29.94 in WNW 23.0 mph 28.0 mph 24% 0.00 in 250.00 W/m2
18:00 59.9 °F 23.0 °F 29.94 in NW 25.0 mph 28.0 mph 24% 0.00 in 244.00 W/m2
18:01 59.9 °F 23.0 °F 29.93 in West 19.0 mph 28.0 mph 24% 0.00 in 239.00 W/m2
18:04 59.7 °F 22.9 °F 29.94 in NW 11.0 mph 28.0 mph 24% 0.00 in 229.00 W/m2
18:05 59.7 °F 22.9 °F 29.94 in WNW 21.0 mph 28.0 mph 24% 0.00 in 220.00 W/m2
18:06 59.6 °F 22.8 °F 29.94 in WNW 12.0 mph 30.0 mph 24% 0.00 in 216.00 W/m2
18:08 59.5 °F 23.7 °F 29.94 in WNW 13.0 mph 30.0 mph 25% 0.00 in 211.00 W/m2
18:09 59.5 °F 23.7 °F 29.94 in WNW 24.0 mph 30.0 mph 25% 0.00 in 207.00 W/m2
18:10 59.5 °F 23.7 °F 29.94 in WNW 16.0 mph 24.0 mph 25% 0.00 in 202.00 W/m2
18:11 59.5 °F 22.7 °F 29.94 in WNW 18.0 mph 25.0 mph 24% 0.00 in 197.00 W/m2
18:13 59.3 °F 22.5 °F 29.94 in West 14.0 mph 27.0 mph 24% 0.00 in 192.00 W/m2
18:14 59.3 °F 22.5 °F 29.94 in West 27.0 mph 27.0 mph 24% 0.00 in 186.00 W/m2
18:15 59.3 °F 22.5 °F 29.94 in NW 26.0 mph 27.0 mph 24% 0.00 in 179.00 W/m2
18:17 59.2 °F 22.5 °F 29.94 in NW 17.0 mph 28.0 mph 24% 0.00 in 174.00 W/m2
18:18 59.1 °F 23.3 °F 29.94 in WNW 18.0 mph 28.0 mph 25% 0.00 in 171.00 W/m2
18:19 59.1 °F 23.3 °F 29.94 in WNW 20.0 mph 28.0 mph 25% 0.00 in 167.00 W/m2
18:20 59.0 °F 23.2 °F 29.94 in WNW 19.0 mph 24.0 mph 25% 0.00 in 163.00 W/m2
18:22 58.9 °F 23.2 °F 29.94 in WNW 9.0 mph 24.0 mph 25% 0.00 in 155.00 W/m2
18:25 58.9 °F 23.2 °F 29.94 in NW 11.0 mph 24.0 mph 25% 0.00 in 144.00 W/m2
18:26 58.8 °F 22.1 °F 29.94 in WNW 15.0 mph 25.0 mph 24% 0.00 in 141.00 W/m2
18:28 58.6 °F 20.9 °F 29.94 in NW 26.0 mph 31.0 mph 23% 0.00 in 128.00 W/m2
18:30 58.6 °F 21.9 °F 29.94 in WNW 20.0 mph 25.0 mph 24% 0.00 in 123.00 W/m2
18:31 58.5 °F 21.9 °F 29.94 in WNW 11.0 mph 25.0 mph 24% 0.00 in 111.00 W/m2
18:33 58.3 °F 21.7 °F 29.94 in WNW 18.0 mph 33.0 mph 24% 0.00 in 102.00 W/m2
18:35 58.3 °F 21.7 °F 29.94 in NW 20.0 mph 33.0 mph 24% 0.00 in 104.00 W/m2
18:36 58.2 °F 21.6 °F 29.94 in WNW 19.0 mph 33.0 mph 24% 0.00 in 100.00 W/m2
18:39 58.1 °F 22.5 °F 29.94 in West 16.0 mph 33.0 mph 25% 0.00 in 88.00 W/m2
18:40 58.0 °F 22.4 °F 29.94 in West 16.0 mph 25.0 mph 25% 0.00 in 84.00 W/m2
18:44 57.8 °F 22.2 °F 29.94 in WNW 21.0 mph 25.0 mph 25% 0.00 in 76.00 W/m2
18:45 57.7 °F 22.1 °F 29.94 in WNW 18.0 mph 26.0 mph 25% 0.00 in 70.00 W/m2
18:46 57.6 °F 22.1 °F 29.94 in WNW 14.0 mph 26.0 mph 25% 0.00 in 67.00 W/m2
18:49 57.4 °F 21.9 °F 29.94 in NW 11.0 mph 27.0 mph 25% 0.00 in 42.00 W/m2
18:50 57.4 °F 21.9 °F 29.94 in NW 14.0 mph 27.0 mph 25% 0.00 in 42.00 W/m2
18:51 57.4 °F 21.9 °F 29.94 in WNW 10.0 mph 21.0 mph 25% 0.00 in 47.00 W/m2
18:53 57.2 °F 21.7 °F 29.94 in NW 21.0 mph 22.0 mph 25% 0.00 in 49.00 W/m2
18:55 57.1 °F 21.6 °F 29.94 in NW 18.0 mph 22.0 mph 25% 0.00 in 42.00 W/m2
18:56 57.1 °F 21.6 °F 29.94 in NW 15.0 mph 22.0 mph 25% 0.00 in 35.00 W/m2
18:58 56.9 °F 22.4 °F 29.94 in WNW 17.0 mph 22.0 mph 26% 0.00 in 37.00 W/m2
19:00 56.8 °F 22.3 °F 29.94 in WNW 18.0 mph 18.0 mph 26% 0.00 in 33.00 W/m2
19:01 56.7 °F 22.2 °F 29.94 in WNW 20.0 mph 24.0 mph 26% 0.00 in 32.00 W/m2
19:04 56.6 °F 23.0 °F 29.94 in WNW 17.0 mph 24.0 mph 27% 0.00 in 19.00 W/m2
19:06 56.5 °F 22.9 °F 29.94 in WNW 11.0 mph 24.0 mph 27% 0.00 in 19.00 W/m2
19:07 56.4 °F 22.9 °F 29.94 in WNW 18.0 mph 24.0 mph 27% 0.00 in 18.00 W/m2
19:09 56.2 °F 22.7 °F 29.94 in WNW 14.0 mph 24.0 mph 27% 0.00 in 16.00 W/m2
19:11 56.1 °F 22.6 °F 29.94 in NW 12.0 mph 17.0 mph 27% 0.00 in 14.00 W/m2
19:12 56.1 °F 22.6 °F 29.94 in WNW 17.0 mph 17.0 mph 27% 0.00 in 14.00 W/m2
19:14 56.0 °F 23.4 °F 29.94 in WNW 13.0 mph 17.0 mph 28% 0.00 in 12.00 W/m2
19:16 55.9 °F 23.3 °F 29.94 in NNW 13.0 mph 17.0 mph 28% 0.00 in 11.00 W/m2
19:17 55.8 °F 23.2 °F 29.94 in West 11.0 mph 17.0 mph 28% 0.00 in 11.00 W/m2
19:20 55.6 °F 23.0 °F 29.94 in WNW 12.0 mph 17.0 mph 28% 0.00 in 9.00 W/m2
19:21 55.5 °F 23.0 °F 29.94 in NW 10.0 mph 17.0 mph 28% 0.00 in 7.00 W/m2
19:22 55.4 °F 22.9 °F 29.94 in WNW 9.0 mph 17.0 mph 28% 0.00 in 7.00 W/m2
19:25 55.2 °F 23.5 °F 29.95 in WNW 11.0 mph 17.0 mph 29% 0.00 in 5.00 W/m2
19:27 55.0 °F 23.4 °F 29.94 in WNW 13.0 mph 17.0 mph 29% 0.00 in 0.00 W/m2
19:28 54.9 °F 23.3 °F 29.94 in West 7.0 mph 17.0 mph 29% 0.00 in 0.00 W/m2
19:30 54.8 °F 23.2 °F 29.95 in WNW 8.0 mph 11.0 mph 29% 0.00 in 0.00 W/m2
19:32 54.7 °F 23.9 °F 29.94 in NW 12.0 mph 13.0 mph 30% 0.00 in 0.00 W/m2
19:33 54.6 °F 23.8 °F 29.95 in WNW 10.0 mph 13.0 mph 30% 0.00 in 0.00 W/m2
19:36 54.5 °F 23.7 °F 29.95 in WNW 11.0 mph 13.0 mph 30% 0.00 in 0.00 W/m2
19:38 54.3 °F 23.5 °F 29.95 in NW 5.0 mph 15.0 mph 30% 0.00 in 0.00 W/m2
19:39 54.3 °F 24.3 °F 29.95 in NW 13.0 mph 15.0 mph 31% 0.00 in 0.00 W/m2
19:41 54.1 °F 24.2 °F 29.95 in WNW 13.0 mph 13.0 mph 31% 0.00 in 0.00 W/m2
19:42 53.9 °F 24.0 °F 29.95 in WNW 10.0 mph 13.0 mph 31% 0.00 in 0.00 W/m2
19:44 53.8 °F 23.9 °F 29.95 in WNW 9.0 mph 18.0 mph 31% 0.00 in 0.00 W/m2
19:46 53.7 °F 23.8 °F 29.95 in NW 7.0 mph 18.0 mph 31% 0.00 in 0.00 W/m2
19:48 53.6 °F 23.7 °F 29.95 in WNW 14.0 mph 18.0 mph 31% 0.00 in 0.00 W/m2
19:49 53.5 °F 23.6 °F 29.95 in NW 12.0 mph 18.0 mph 31% 0.00 in 0.00 W/m2
19:50 53.5 °F 23.6 °F 29.95 in NW 10.0 mph 18.0 mph 31% 0.00 in 0.00 W/m2
19:52 53.3 °F 24.2 °F 29.95 in WNW 6.0 mph 12.0 mph 32% 0.00 in 0.00 W/m2
19:53 53.3 °F 24.2 °F 29.95 in NW 7.0 mph 12.0 mph 32% 0.00 in 0.00 W/m2
19:54 53.2 °F 24.1 °F 29.95 in NW 10.0 mph 12.0 mph 32% 0.00 in 0.00 W/m2
19:55 53.2 °F 24.1 °F 29.95 in NW 5.0 mph 12.0 mph 32% 0.00 in 0.00 W/m2
19:58 53.0 °F 24.0 °F 29.95 in WNW 10.0 mph 14.0 mph 32% 0.00 in 0.00 W/m2
20:00 52.9 °F 23.9 °F 29.95 in WNW 12.0 mph 14.0 mph 32% 0.00 in 0.00 W/m2
20:04 52.6 °F 24.3 °F 29.96 in WNW 11.0 mph 12.0 mph 33% 0.00 in 0.00 W/m2
20:05 52.6 °F 24.3 °F 29.96 in NW 6.0 mph 12.0 mph 33% 0.00 in 0.00 W/m2
20:09 52.3 °F 24.1 °F 29.96 in NW 5.0 mph 12.0 mph 33% 0.00 in 0.00 W/m2
20:10 52.3 °F 24.1 °F 29.96 in NW 7.0 mph 12.0 mph 33% 0.00 in 0.00 W/m2
20:14 52.1 °F 24.6 °F 29.96 in WNW 3.0 mph 11.0 mph 34% 0.00 in 0.00 W/m2
20:15 52.0 °F 24.5 °F 29.96 in WNW 6.0 mph 11.0 mph 34% 0.00 in 0.00 W/m2
20:16 52.0 °F 24.5 °F 29.96 in WNW 10.0 mph 11.0 mph 34% 0.00 in 0.00 W/m2
20:19 51.7 °F 24.3 °F 29.96 in NW 9.0 mph 11.0 mph 34% 0.00 in 0.00 W/m2
20:20 51.7 °F 24.3 °F 29.96 in NW 4.0 mph 11.0 mph 34% 0.00 in 0.00 W/m2
20:21 51.7 °F 24.3 °F 29.97 in NW 10.0 mph 10.0 mph 34% 0.00 in 0.00 W/m2
20:24 51.4 °F 24.7 °F 29.97 in NW 5.0 mph 10.0 mph 35% 0.00 in 0.00 W/m2
20:26 51.4 °F 24.7 °F 29.97 in NW 6.0 mph 10.0 mph 35% 0.00 in 0.00 W/m2
20:27 51.3 °F 24.6 °F 29.97 in NW 7.0 mph 10.0 mph 35% 0.00 in 0.00 W/m2
20:30 51.1 °F 24.4 °F 29.97 in NW 6.0 mph 11.0 mph 35% 0.00 in 0.00 W/m2
20:31 51.0 °F 24.3 °F 29.97 in WNW 9.0 mph 11.0 mph 35% 0.00 in 0.00 W/m2
20:32 50.9 °F 24.2 °F 29.97 in WNW 7.0 mph 12.0 mph 35% 0.00 in 0.00 W/m2
20:35 50.8 °F 24.1 °F 29.97 in WNW 11.0 mph 12.0 mph 35% 0.00 in 0.00 W/m2
20:36 50.8 °F 24.1 °F 29.97 in WNW 11.0 mph 12.0 mph 35% 0.00 in 0.00 W/m2
20:37 50.8 °F 24.1 °F 29.97 in WNW 4.0 mph 12.0 mph 35% 0.00 in 0.00 W/m2
20:38 50.7 °F 24.1 °F 29.97 in WNW 7.0 mph 12.0 mph 35% 0.00 in 0.00 W/m2
20:40 50.7 °F 24.1 °F 29.97 in WNW 11.0 mph 11.0 mph 35% 0.00 in 0.00 W/m2
20:42 50.7 °F 24.1 °F 29.97 in NW 7.0 mph 11.0 mph 35% 0.00 in 0.00 W/m2
20:43 50.7 °F 24.1 °F 29.97 in WNW 10.0 mph 11.0 mph 35% 0.00 in 0.00 W/m2
20:45 50.7 °F 24.1 °F 29.98 in NW 9.0 mph 13.0 mph 35% 0.00 in 0.00 W/m2
20:48 50.7 °F 24.1 °F 29.98 in NW 9.0 mph 13.0 mph 35% 0.00 in 0.00 W/m2
20:49 50.6 °F 23.3 °F 29.98 in NW 7.0 mph 13.0 mph 34% 0.00 in 0.00 W/m2
20:50 50.6 °F 23.3 °F 29.98 in NW 7.0 mph 10.0 mph 34% 0.00 in 0.00 W/m2
20:53 50.6 °F 23.3 °F 29.98 in NW 9.0 mph 13.0 mph 34% 0.00 in 0.00 W/m2
20:54 50.6 °F 23.3 °F 29.98 in NW 10.0 mph 13.0 mph 34% 0.00 in 0.00 W/m2
20:55 50.6 °F 23.3 °F 29.98 in WNW 11.0 mph 13.0 mph 34% 0.00 in 0.00 W/m2
20:58 50.5 °F 23.9 °F 29.98 in WNW 8.0 mph 13.0 mph 35% 0.00 in 0.00 W/m2
20:59 50.5 °F 23.9 °F 29.98 in WNW 11.0 mph 13.0 mph 35% 0.00 in 0.00 W/m2
21:00 50.5 °F 23.9 °F 29.98 in WNW 11.0 mph 11.0 mph 35% 0.00 in 0.00 W/m2
21:04 50.2 °F 23.6 °F 29.98 in NW 13.0 mph 14.0 mph 35% 0.00 in 0.00 W/m2
21:05 50.2 °F 23.6 °F 29.98 in WNW 10.0 mph 14.0 mph 35% 0.00 in 0.00 W/m2
21:07 50.1 °F 23.5 °F 29.98 in WNW 9.0 mph 14.0 mph 35% 0.00 in 0.00 W/m2
21:10 50.0 °F 23.4 °F 29.98 in WNW 8.0 mph 14.0 mph 35% 0.00 in 0.00 W/m2
21:12 50.0 °F 23.4 °F 29.98 in NW 5.0 mph 13.0 mph 35% 0.00 in 0.00 W/m2
21:15 49.8 °F 23.9 °F 29.98 in NW 5.0 mph 13.0 mph 36% 0.00 in 0.00 W/m2
21:16 49.8 °F 23.9 °F 29.98 in NW 9.0 mph 13.0 mph 36% 0.00 in 0.00 W/m2
21:19 49.7 °F 23.9 °F 29.98 in WNW 10.0 mph 13.0 mph 36% 0.00 in 0.00 W/m2
21:20 49.6 °F 23.8 °F 29.98 in WNW 10.0 mph 10.0 mph 36% 0.00 in 0.00 W/m2
21:21 49.6 °F 23.8 °F 29.98 in WNW 9.0 mph 13.0 mph 36% 0.00 in 0.00 W/m2
21:25 49.4 °F 23.6 °F 29.99 in WNW 11.0 mph 14.0 mph 36% 0.00 in 0.00 W/m2
21:26 49.4 °F 23.6 °F 29.98 in WNW 9.0 mph 14.0 mph 36% 0.00 in 0.00 W/m2
21:30 49.3 °F 23.5 °F 29.99 in NW 7.0 mph 7.0 mph 36% 0.00 in 0.00 W/m2
21:31 49.3 °F 23.5 °F 29.99 in NW 7.0 mph 7.0 mph 36% 0.00 in 0.00 W/m2
21:35 49.4 °F 22.9 °F 29.99 in WNW 6.0 mph 14.0 mph 35% 0.00 in 0.00 W/m2
21:36 49.4 °F 22.9 °F 29.99 in WNW 11.0 mph 14.0 mph 35% 0.00 in 0.00 W/m2
21:37 49.4 °F 22.9 °F 29.99 in NW 5.0 mph 14.0 mph 35% 0.00 in 0.00 W/m2
21:41 49.4 °F 22.9 °F 29.99 in WNW 7.0 mph 13.0 mph 35% 0.00 in 0.00 W/m2
21:42 49.4 °F 22.9 °F 29.99 in WNW 5.0 mph 13.0 mph 35% 0.00 in 0.00 W/m2
21:45 49.2 °F 22.7 °F 29.99 in NW 5.0 mph 13.0 mph 35% 0.00 in 0.00 W/m2
21:47 49.2 °F 22.7 °F 29.99 in WNW 10.0 mph 13.0 mph 35% 0.00 in 0.00 W/m2
21:49 49.1 °F 22.6 °F 29.99 in NW 5.0 mph 13.0 mph 35% 0.00 in 0.00 W/m2
21:50 49.0 °F 22.6 °F 29.99 in WNW 9.0 mph 10.0 mph 35% 0.00 in 0.00 W/m2
21:52 49.0 °F 22.6 °F 29.99 in NW 6.0 mph 11.0 mph 35% 0.00 in 0.00 W/m2
21:54 48.8 °F 22.4 °F 29.99 in WNW 4.0 mph 12.0 mph 35% 0.00 in 0.00 W/m2
21:56 48.8 °F 22.4 °F 29.99 in NW 6.0 mph 12.0 mph 35% 0.00 in 0.00 W/m2
21:57 48.7 °F 22.3 °F 29.99 in NW 7.0 mph 12.0 mph 35% 0.00 in 0.00 W/m2
22:00 48.5 °F 22.1 °F 29.99 in WNW 9.0 mph 12.0 mph 35% 0.00 in 0.00 W/m2
22:01 48.5 °F 22.1 °F 29.99 in WNW 10.0 mph 12.0 mph 35% 0.00 in 0.00 W/m2
22:02 48.4 °F 22.0 °F 29.99 in NW 6.0 mph 12.0 mph 35% 0.00 in 0.00 W/m2
22:05 48.3 °F 22.6 °F 29.99 in NW 4.0 mph 12.0 mph 36% 0.00 in 0.00 W/m2
22:06 48.3 °F 22.6 °F 29.99 in NW 3.0 mph 12.0 mph 36% 0.00 in 0.00 W/m2
22:07 48.2 °F 22.5 °F 29.99 in NNW 5.0 mph 12.0 mph 36% 0.00 in 0.00 W/m2
22:10 48.1 °F 22.4 °F 29.99 in NNW 6.0 mph 9.0 mph 36% 0.00 in 0.00 W/m2
22:11 48.0 °F 23.0 °F 29.99 in NW 5.0 mph 11.0 mph 37% 0.00 in 0.00 W/m2
22:12 48.0 °F 23.0 °F 29.99 in NW 10.0 mph 11.0 mph 37% 0.00 in 0.00 W/m2
22:13 48.0 °F 23.0 °F 29.99 in NNW 6.0 mph 11.0 mph 37% 0.00 in 0.00 W/m2
22:15 47.9 °F 22.9 °F 29.99 in NW 7.0 mph 11.0 mph 37% 0.00 in 0.00 W/m2
22:16 47.9 °F 22.9 °F 29.99 in NW 7.0 mph 11.0 mph 37% 0.00 in 0.00 W/m2
22:17 47.8 °F 22.8 °F 29.99 in NW 6.0 mph 11.0 mph 37% 0.00 in 0.00 W/m2
22:18 47.8 °F 22.8 °F 29.99 in NW 5.0 mph 11.0 mph 37% 0.00 in 0.00 W/m2
22:22 47.7 °F 23.4 °F 29.99 in NW 6.0 mph 9.0 mph 38% 0.00 in 0.00 W/m2
22:23 47.7 °F 22.7 °F 29.99 in NW 5.0 mph 9.0 mph 37% 0.00 in 0.00 W/m2
22:27 47.5 °F 23.2 °F 29.98 in NW 7.0 mph 9.0 mph 38% 0.00 in 0.00 W/m2
22:28 47.5 °F 23.2 °F 29.99 in NW 4.0 mph 9.0 mph 38% 0.00 in 0.00 W/m2
22:29 47.4 °F 23.1 °F 29.99 in NW 6.0 mph 9.0 mph 38% 0.00 in 0.00 W/m2
22:32 47.2 °F 22.9 °F 29.98 in NW 4.0 mph 9.0 mph 38% 0.00 in 0.00 W/m2
22:33 47.2 °F 22.9 °F 29.99 in NW 10.0 mph 10.0 mph 38% 0.00 in 0.00 W/m2
22:34 47.2 °F 22.9 °F 29.99 in NW 13.0 mph 13.0 mph 38% 0.00 in 0.00 W/m2
22:38 47.0 °F 23.3 °F 29.99 in NNW 3.0 mph 13.0 mph 39% 0.00 in 0.00 W/m2
22:39 47.0 °F 23.3 °F 29.99 in NW 5.0 mph 13.0 mph 39% 0.00 in 0.00 W/m2
22:40 46.9 °F 23.3 °F 29.99 in NW 3.0 mph 3.0 mph 39% 0.00 in 0.00 W/m2
22:43 46.7 °F 23.1 °F 29.99 in NNW 7.0 mph 10.0 mph 39% 0.00 in 0.00 W/m2
22:44 46.7 °F 23.1 °F 29.98 in NNW 7.0 mph 10.0 mph 39% 0.00 in 0.00 W/m2
22:45 46.6 °F 23.0 °F 29.99 in NNW 4.0 mph 10.0 mph 39% 0.00 in 0.00 W/m2
22:49 46.4 °F 23.4 °F 29.99 in NW 5.0 mph 10.0 mph 40% 0.00 in 0.00 W/m2
22:50 46.4 °F 23.4 °F 29.98 in NNW 7.0 mph 9.0 mph 40% 0.00 in 0.00 W/m2
22:51 46.3 °F 23.3 °F 29.98 in NW 4.0 mph 9.0 mph 40% 0.00 in 0.00 W/m2
22:54 46.2 °F 23.2 °F 29.99 in NW 6.0 mph 10.0 mph 40% 0.00 in 0.00 W/m2
22:55 46.1 °F 23.7 °F 29.99 in NNW 6.0 mph 10.0 mph 41% 0.00 in 0.00 W/m2
22:56 46.0 °F 23.6 °F 29.99 in NW 11.0 mph 11.0 mph 41% 0.00 in 0.00 W/m2
22:59 45.9 °F 23.5 °F 29.99 in NNW 5.0 mph 11.0 mph 41% 0.00 in 0.00 W/m2
23:00 45.9 °F 23.5 °F 29.99 in NW 6.0 mph 11.0 mph 41% 0.00 in 0.00 W/m2
23:05 45.8 °F 23.5 °F 29.99 in NW 5.0 mph 10.0 mph 41% 0.00 in 0.00 W/m2
23:10 45.7 °F 23.4 °F 29.99 in NNW 9.0 mph 9.0 mph 41% 0.00 in 0.00 W/m2
23:15 45.7 °F 23.4 °F 29.99 in NNW 3.0 mph 11.0 mph 41% 0.00 in 0.00 W/m2
23:16 45.6 °F 23.3 °F 29.99 in NNW 5.0 mph 11.0 mph 41% 0.00 in 0.00 W/m2
23:20 45.5 °F 23.2 °F 29.99 in NNW 3.0 mph 6.0 mph 41% 0.00 in 0.00 W/m2
23:21 45.5 °F 23.8 °F 29.99 in NNW 7.0 mph 7.0 mph 42% 0.00 in 0.00 W/m2
23:22 45.4 °F 23.7 °F 29.99 in NW 2.0 mph 9.0 mph 42% 0.00 in 0.00 W/m2
23:25 45.3 °F 23.6 °F 30.00 in NW 3.0 mph 9.0 mph 42% 0.00 in 0.00 W/m2
23:26 45.3 °F 23.6 °F 30.00 in NNW 4.0 mph 10.0 mph 42% 0.00 in 0.00 W/m2
23:27 45.3 °F 23.6 °F 30.00 in NNW 2.0 mph 10.0 mph 42% 0.00 in 0.00 W/m2
23:30 45.2 °F 23.5 °F 30.00 in NW 3.0 mph 6.0 mph 42% 0.00 in 0.00 W/m2
23:31 45.2 °F 23.5 °F 30.00 in NW 4.0 mph 6.0 mph 42% 0.00 in 0.00 W/m2
23:32 45.1 °F 23.4 °F 30.00 in NW 4.0 mph 7.0 mph 42% 0.00 in 0.00 W/m2
23:33 45.1 °F 23.4 °F 30.00 in NW 7.0 mph 7.0 mph 42% 0.00 in 0.00 W/m2
23:36 45.0 °F 23.3 °F 30.00 in NW 5.0 mph 8.0 mph 42% 0.00 in 0.00 W/m2
23:37 44.9 °F 23.8 °F 30.00 in NW 5.0 mph 8.0 mph 43% 0.00 in 0.00 W/m2
23:38 44.9 °F 23.8 °F 30.00 in NW 5.0 mph 8.0 mph 43% 0.00 in 0.00 W/m2
23:39 44.9 °F 23.8 °F 30.00 in NW 5.0 mph 8.0 mph 43% 0.00 in 0.00 W/m2
23:41 44.8 °F 23.7 °F 30.00 in NW 3.0 mph 5.0 mph 43% 0.00 in 0.00 W/m2
23:42 44.8 °F 23.7 °F 30.00 in NW 3.0 mph 6.0 mph 43% 0.00 in 0.00 W/m2
23:43 44.8 °F 23.7 °F 30.00 in NW 4.0 mph 9.0 mph 43% 0.00 in 0.00 W/m2
23:45 44.6 °F 23.5 °F 30.00 in NW 5.0 mph 9.0 mph 43% 0.00 in 0.00 W/m2
23:46 44.6 °F 23.5 °F 30.00 in NW 6.0 mph 9.0 mph 43% 0.00 in 0.00 W/m2
23:48 44.5 °F 23.4 °F 30.00 in NNW 7.0 mph 9.0 mph 43% 0.00 in 0.00 W/m2
23:50 44.4 °F 23.9 °F 30.00 in NW 2.0 mph 6.0 mph 44% 0.00 in 0.00 W/m2
23:51 44.4 °F 23.9 °F 30.00 in NW 6.0 mph 12.0 mph 44% 0.00 in 0.00 W/m2
23:53 44.3 °F 23.8 °F 30.00 in NW 3.0 mph 12.0 mph 44% 0.00 in 0.00 W/m2
23:56 44.2 °F 23.7 °F 30.00 in NW 3.0 mph 12.0 mph 44% 0.00 in 0.00 W/m2
23:58 44.0 °F 23.5 °F 30.00 in NW 1.0 mph 12.0 mph 44% 0.00 in 0.00 W/m2
23:59 44.0 °F 24.0 °F 30.00 in NW 2.0 mph 12.0 mph 45% 0.00 in 0.00 W/m2
Peotone Weather Data
Compliments of Weather Underground